Time,TemperatureF,DewpointF,PressureIn,WindDirection,WindDirectionDegrees,WindSpeedMPH,WindSpeedGustMPH,Humidity,HourlyPrecipIn,Conditions,Clouds,dailyrainin,SoftwareType,DateUTC
2013-01-31 00:01:00,41.1,36.3,29.72,SW,214,12.0,12.0,83,0.00,,,2.45,Wunderground v.1.15,2013-01-31 05:01:00,
2013-01-31 00:07:00,40.8,36.3,29.73,West,264,3.0,12.0,84,0.00,,,0.00,Wunderground v.1.15,2013-01-31 05:07:00,
2013-01-31 00:08:00,40.8,36.0,29.73,West,262,6.0,12.0,83,0.00,,,0.00,Wunderground v.1.15,2013-01-31 05:08:00,
2013-01-31 00:09:00,40.8,36.3,29.74,WSW,250,3.0,12.0,84,0.00,,,0.00,Wunderground v.1.15,2013-01-31 05:09:00,
2013-01-31 00:10:00,40.8,36.3,29.74,WSW,252,4.0,5.0,84,0.00,,,0.00,Wunderground v.1.15,2013-01-31 05:10:00,
2013-01-31 00:15:00,40.6,36.1,29.74,West,269,7.0,7.0,84,0.00,,,0.00,Wunderground v.1.15,2013-01-31 05:15:00,
2013-01-31 00:16:00,40.5,36.0,29.74,NW,307,10.0,10.0,84,0.00,,,0.00,Wunderground v.1.15,2013-01-31 05:16:00,
2013-01-31 00:17:00,40.4,35.9,29.74,West,269,5.0,10.0,84,0.00,,,0.00,Wunderground v.1.15,2013-01-31 05:17:00,
2013-01-31 00:22:00,39.7,35.6,29.75,West,273,8.0,16.0,85,0.00,,,0.01,Wunderground v.1.15,2013-01-31 05:22:00,
2013-01-31 00:26:00,39.2,35.7,29.75,West,267,2.0,16.0,87,0.00,,,0.01,Wunderground v.1.15,2013-01-31 05:26:00,
2013-01-31 00:27:00,39.2,35.7,29.75,West,270,1.0,16.0,87,0.00,,,0.01,Wunderground v.1.15,2013-01-31 05:27:00,
2013-01-31 00:33:00,38.8,35.3,29.76,WNW,296,2.0,5.0,87,0.00,,,0.01,Wunderground v.1.15,2013-01-31 05:33:00,
2013-01-31 00:37:00,38.7,35.5,29.76,WNW,294,1.0,5.0,88,0.00,,,0.01,Wunderground v.1.15,2013-01-31 05:37:00,
2013-01-31 00:39:00,38.6,35.4,29.76,WNW,294,1.0,5.0,88,0.00,,,0.01,Wunderground v.1.15,2013-01-31 05:39:00,
2013-01-31 00:43:00,38.6,34.8,29.77,SW,233,11.0,11.0,86,0.00,,,0.01,Wunderground v.1.15,2013-01-31 05:43:00,
2013-01-31 00:45:00,38.7,34.9,29.77,WSW,257,1.0,11.0,86,0.00,,,0.01,Wunderground v.1.15,2013-01-31 05:45:00,
2013-01-31 00:46:00,38.7,34.9,29.76,West,275,4.0,11.0,86,0.00,,,0.01,Wunderground v.1.15,2013-01-31 05:46:00,
2013-01-31 00:49:00,38.8,34.4,29.77,WNW,283,3.0,11.0,84,0.00,,,0.01,Wunderground v.1.15,2013-01-31 05:49:00,
2013-01-31 00:51:00,38.8,34.1,29.77,SW,222,2.0,4.0,83,0.00,,,0.01,Wunderground v.1.15,2013-01-31 05:51:00,
2013-01-31 00:57:00,39.0,33.0,29.77,WNW,300,6.0,9.0,79,0.00,,,0.01,Wunderground v.1.15,2013-01-31 05:57:00,
2013-01-31 00:59:00,39.0,33.0,29.77,West,261,4.0,9.0,79,0.00,,,0.01,Wunderground v.1.15,2013-01-31 05:59:00,
2013-01-31 01:02:00,39.0,33.4,29.77,WNW,287,5.0,6.0,80,0.00,,,0.01,Wunderground v.1.15,2013-01-31 06:02:00,
2013-01-31 01:04:00,39.0,33.0,29.78,WNW,285,6.0,6.0,79,0.00,,,0.01,Wunderground v.1.15,2013-01-31 06:04:00,
2013-01-31 01:06:00,38.9,32.6,29.78,NW,321,3.0,12.0,78,0.00,,,0.01,Wunderground v.1.15,2013-01-31 06:06:00,
2013-01-31 01:09:00,38.9,32.6,29.78,West,266,5.0,12.0,78,0.00,,,0.01,Wunderground v.1.15,2013-01-31 06:09:00,
2013-01-31 01:12:00,38.8,31.9,29.79,West,279,5.0,10.0,76,0.00,,,0.01,Wunderground v.1.15,2013-01-31 06:12:00,
2013-01-31 01:18:00,38.7,30.8,29.79,West,280,6.0,12.0,73,0.00,,,0.01,Wunderground v.1.15,2013-01-31 06:18:00,
2013-01-31 01:21:00,38.7,31.1,29.79,WNW,295,5.0,7.0,74,0.00,,,0.01,Wunderground v.1.15,2013-01-31 06:21:00,
2013-01-31 01:24:00,38.6,31.0,29.80,West,275,6.0,7.0,74,0.00,,,0.01,Wunderground v.1.15,2013-01-31 06:24:00,
2013-01-31 01:30:00,38.4,30.8,29.80,West,275,6.0,6.0,74,0.00,,,0.01,Wunderground v.1.15,2013-01-31 06:30:00,
2013-01-31 01:34:00,38.4,30.5,29.81,West,269,5.0,7.0,73,0.00,,,0.01,Wunderground v.1.15,2013-01-31 06:34:00,
2013-01-31 01:35:00,38.3,31.1,29.81,West,279,7.0,7.0,75,0.00,,,0.01,Wunderground v.1.15,2013-01-31 06:35:00,
2013-01-31 01:36:00,38.3,31.4,29.81,West,261,4.0,7.0,76,0.00,,,0.01,Wunderground v.1.15,2013-01-31 06:36:00,
2013-01-31 01:41:00,38.2,30.6,29.82,West,263,18.0,18.0,74,0.00,,,0.01,Wunderground v.1.15,2013-01-31 06:41:00,
2013-01-31 01:42:00,38.2,30.3,29.82,WSW,258,10.0,18.0,73,0.00,,,0.01,Wunderground v.1.15,2013-01-31 06:42:00,
2013-01-31 01:43:00,38.2,30.0,29.82,WNW,291,10.0,18.0,72,0.00,,,0.01,Wunderground v.1.15,2013-01-31 06:43:00,
2013-01-31 01:45:00,38.2,30.0,29.82,WNW,283,9.0,18.0,72,0.00,,,0.01,Wunderground v.1.15,2013-01-31 06:45:00,
2013-01-31 01:51:00,38.0,29.1,29.83,WSW,254,7.0,9.0,70,0.00,,,0.01,Wunderground v.1.15,2013-01-31 06:51:00,
2013-01-31 01:55:00,37.9,28.6,29.83,SW,229,7.0,9.0,69,0.00,,,0.01,Wunderground v.1.15,2013-01-31 06:55:00,
2013-01-31 01:56:00,37.9,28.6,29.83,West,273,5.0,9.0,69,0.00,,,0.01,Wunderground v.1.15,2013-01-31 06:56:00,
2013-01-31 01:57:00,37.9,28.6,29.83,WNW,296,4.0,9.0,69,0.00,,,0.01,Wunderground v.1.15,2013-01-31 06:57:00,
2013-01-31 01:59:00,37.9,28.6,29.83,WNW,290,15.0,15.0,69,0.00,,,0.01,Wunderground v.1.15,2013-01-31 06:59:00,
2013-01-31 02:01:00,37.8,28.9,29.83,West,276,7.0,9.0,70,0.00,,,0.01,Wunderground v.1.15,2013-01-31 07:01:00,
2013-01-31 02:02:00,37.8,28.2,29.84,WNW,290,6.0,9.0,68,0.00,,,0.01,Wunderground v.1.15,2013-01-31 07:02:00,
2013-01-31 02:04:00,37.7,28.4,29.84,WNW,290,7.0,9.0,69,0.00,,,0.01,Wunderground v.1.15,2013-01-31 07:04:00,
2013-01-31 02:06:00,37.6,26.9,29.83,WNW,282,11.0,19.0,65,0.00,,,0.01,Wunderground v.1.15,2013-01-31 07:06:00,
2013-01-31 02:07:00,37.6,26.9,29.84,West,277,18.0,19.0,65,0.00,,,0.01,Wunderground v.1.15,2013-01-31 07:07:00,
2013-01-31 02:09:00,37.5,27.5,29.84,WNW,289,5.0,19.0,67,0.00,,,0.01,Wunderground v.1.15,2013-01-31 07:09:00,
2013-01-31 02:11:00,37.5,26.8,29.85,WSW,257,3.0,13.0,65,0.00,,,0.01,Wunderground v.1.15,2013-01-31 07:11:00,
2013-01-31 02:12:00,37.5,26.8,29.85,West,281,3.0,13.0,65,0.00,,,0.01,Wunderground v.1.15,2013-01-31 07:12:00,
2013-01-31 02:15:00,37.4,26.7,29.85,WSW,257,13.0,13.0,65,0.00,,,0.01,Wunderground v.1.15,2013-01-31 07:15:00,
2013-01-31 02:17:00,37.3,26.2,29.85,West,262,16.0,16.0,64,0.00,,,0.01,Wunderground v.1.15,2013-01-31 07:17:00,
2013-01-31 02:20:00,37.2,26.5,29.85,WSW,248,10.0,11.0,65,0.00,,,0.01,Wunderground v.1.15,2013-01-31 07:20:00,
2013-01-31 02:22:00,37.2,26.1,29.85,NW,308,11.0,11.0,64,0.00,,,0.01,Wunderground v.1.15,2013-01-31 07:22:00,
2013-01-31 02:25:00,37.1,26.4,29.86,WSW,258,8.0,11.0,65,0.00,,,0.01,Wunderground v.1.15,2013-01-31 07:25:00,
2013-01-31 02:27:00,37.1,26.0,29.86,West,260,4.0,11.0,64,0.00,,,0.01,Wunderground v.1.15,2013-01-31 07:27:00,
2013-01-31 02:31:00,37.0,27.1,29.87,West,281,3.0,11.0,67,0.00,,,0.01,Wunderground v.1.15,2013-01-31 07:31:00,
2013-01-31 02:32:00,37.0,25.9,29.86,NNW,330,4.0,11.0,64,0.00,,,0.01,Wunderground v.1.15,2013-01-31 07:32:00,
2013-01-31 02:36:00,36.9,27.0,29.86,West,265,6.0,13.0,67,0.00,,,0.01,Wunderground v.1.15,2013-01-31 07:36:00,
2013-01-31 02:37:00,36.9,25.5,29.87,West,275,6.0,16.0,63,0.00,,,0.01,Wunderground v.1.15,2013-01-31 07:37:00,
2013-01-31 02:38:00,36.9,25.5,29.87,WNW,298,12.0,16.0,63,0.00,,,0.01,Wunderground v.1.15,2013-01-31 07:38:00,
2013-01-31 02:41:00,36.9,25.5,29.87,NW,319,5.0,9.0,63,0.00,,,0.01,Wunderground v.1.15,2013-01-31 07:41:00,
2013-01-31 02:43:00,36.9,25.9,29.87,West,260,6.0,9.0,64,0.00,,,0.01,Wunderground v.1.15,2013-01-31 07:43:00,
2013-01-31 02:46:00,36.8,25.8,29.87,WNW,291,9.0,10.0,64,0.00,,,0.01,Wunderground v.1.15,2013-01-31 07:46:00,
2013-01-31 02:48:00,36.8,25.8,29.87,WNW,298,6.0,10.0,64,0.00,,,0.01,Wunderground v.1.15,2013-01-31 07:48:00,
2013-01-31 02:49:00,36.8,25.0,29.87,NW,316,5.0,10.0,62,0.00,,,0.01,Wunderground v.1.15,2013-01-31 07:49:00,
2013-01-31 02:52:00,36.8,25.4,29.87,WNW,293,4.0,7.0,63,0.00,,,0.01,Wunderground v.1.15,2013-01-31 07:52:00,
2013-01-31 02:53:00,36.8,25.0,29.87,WNW,294,2.0,7.0,62,0.00,,,0.01,Wunderground v.1.15,2013-01-31 07:53:00,
2013-01-31 02:54:00,36.8,25.8,29.87,WNW,293,3.0,7.0,64,0.00,,,0.01,Wunderground v.1.15,2013-01-31 07:54:00,
2013-01-31 02:57:00,36.7,26.4,29.87,West,259,4.0,9.0,66,0.00,,,0.01,Wunderground v.1.15,2013-01-31 07:57:00,
2013-01-31 02:58:00,36.7,25.7,29.87,NNW,327,4.0,11.0,64,0.00,,,0.01,Wunderground v.1.15,2013-01-31 07:58:00,
2013-01-31 02:59:00,36.7,26.4,29.88,WNW,286,4.0,11.0,66,0.00,,,0.01,Wunderground v.1.15,2013-01-31 07:59:00,
2013-01-31 03:02:00,36.6,25.2,29.88,WNW,303,4.0,7.0,63,0.00,,,0.01,Wunderground v.1.15,2013-01-31 08:02:00,
2013-01-31 03:03:00,36.6,25.6,29.88,WNW,302,3.0,7.0,64,0.00,,,0.01,Wunderground v.1.15,2013-01-31 08:03:00,
2013-01-31 03:05:00,36.6,25.9,29.88,WNW,288,5.0,9.0,65,0.00,,,0.01,Wunderground v.1.15,2013-01-31 08:05:00,
2013-01-31 03:07:00,36.6,25.2,29.88,WNW,291,3.0,11.0,63,0.00,,,0.01,Wunderground v.1.15,2013-01-31 08:07:00,
2013-01-31 03:08:00,36.6,25.6,29.88,NW,306,4.0,11.0,64,0.00,,,0.01,Wunderground v.1.15,2013-01-31 08:08:00,
2013-01-31 03:10:00,36.6,25.9,29.88,WNW,303,3.0,4.0,65,0.00,,,0.01,Wunderground v.1.15,2013-01-31 08:10:00,
2013-01-31 03:12:00,36.5,26.6,29.88,WNW,289,6.0,9.0,67,0.00,,,0.01,Wunderground v.1.15,2013-01-31 08:12:00,
2013-01-31 03:13:00,36.5,25.5,29.87,WNW,288,5.0,13.0,64,0.00,,,0.01,Wunderground v.1.15,2013-01-31 08:13:00,
2013-01-31 03:14:00,36.5,25.5,29.87,West,275,6.0,13.0,64,0.00,,,0.01,Wunderground v.1.15,2013-01-31 08:14:00,
2013-01-31 03:15:00,36.4,25.4,29.87,WSW,253,9.0,13.0,64,0.00,,,0.01,Wunderground v.1.15,2013-01-31 08:15:00,
2013-01-31 03:17:00,36.4,25.7,29.88,West,279,3.0,13.0,65,0.00,,,0.01,Wunderground v.1.15,2013-01-31 08:17:00,
2013-01-31 03:18:00,36.4,25.7,29.88,SW,232,6.0,13.0,65,0.00,,,0.01,Wunderground v.1.15,2013-01-31 08:18:00,
2013-01-31 03:19:00,36.4,25.4,29.88,WNW,301,6.0,13.0,64,0.00,,,0.01,Wunderground v.1.15,2013-01-31 08:19:00,
2013-01-31 03:20:00,36.4,25.4,29.87,West,278,4.0,6.0,64,0.00,,,0.01,Wunderground v.1.15,2013-01-31 08:20:00,
2013-01-31 03:22:00,36.4,26.1,29.88,NW,311,4.0,9.0,66,0.00,,,0.01,Wunderground v.1.15,2013-01-31 08:22:00,
2013-01-31 03:24:00,36.3,25.7,29.88,NNW,331,6.0,9.0,65,0.00,,,0.01,Wunderground v.1.15,2013-01-31 08:24:00,
2013-01-31 03:25:00,36.3,26.7,29.88,WNW,300,4.0,9.0,68,0.00,,,0.01,Wunderground v.1.15,2013-01-31 08:25:00,
2013-01-31 03:27:00,36.2,25.6,29.88,WNW,286,6.0,11.0,65,0.00,,,0.01,Wunderground v.1.15,2013-01-31 08:27:00,
2013-01-31 03:29:00,36.2,25.9,29.88,West,280,5.0,17.0,66,0.00,,,0.01,Wunderground v.1.15,2013-01-31 08:29:00,
2013-01-31 03:31:00,36.2,26.3,29.88,West,260,5.0,6.0,67,0.00,,,0.01,Wunderground v.1.15,2013-01-31 08:31:00,
2013-01-31 03:32:00,36.2,26.3,29.88,WNW,290,6.0,6.0,67,0.00,,,0.01,Wunderground v.1.15,2013-01-31 08:32:00,
2013-01-31 03:34:00,36.1,26.2,29.88,West,276,6.0,10.0,67,0.00,,,0.01,Wunderground v.1.15,2013-01-31 08:34:00,
2013-01-31 03:35:00,36.1,26.2,29.88,SW,227,6.0,12.0,67,0.00,,,0.01,Wunderground v.1.15,2013-01-31 08:35:00,
2013-01-31 03:36:00,36.1,25.5,29.88,WSW,257,4.0,14.0,65,0.00,,,0.01,Wunderground v.1.15,2013-01-31 08:36:00,
2013-01-31 03:37:00,36.1,25.5,29.88,West,273,6.0,14.0,65,0.00,,,0.01,Wunderground v.1.15,2013-01-31 08:37:00,
2013-01-31 03:39:00,36.1,25.5,29.88,WNW,293,4.0,14.0,65,0.00,,,0.01,Wunderground v.1.15,2013-01-31 08:39:00,
2013-01-31 03:40:00,36.1,25.5,29.88,WNW,293,3.0,5.0,65,0.00,,,0.01,Wunderground v.1.15,2013-01-31 08:40:00,
2013-01-31 03:41:00,36.1,25.8,29.88,WNW,284,2.0,7.0,66,0.00,,,0.01,Wunderground v.1.15,2013-01-31 08:41:00,
2013-01-31 03:43:00,36.1,26.2,29.88,West,281,5.0,9.0,67,0.00,,,0.01,Wunderground v.1.15,2013-01-31 08:43:00,
2013-01-31 03:45:00,36.0,26.1,29.88,WNW,301,3.0,11.0,67,0.00,,,0.01,Wunderground v.1.15,2013-01-31 08:45:00,
2013-01-31 03:46:00,36.0,26.5,29.88,West,272,9.0,11.0,68,0.00,,,0.01,Wunderground v.1.15,2013-01-31 08:46:00,
2013-01-31 03:48:00,36.0,26.1,29.88,WNW,284,8.0,11.0,67,0.00,,,0.01,Wunderground v.1.15,2013-01-31 08:48:00,
2013-01-31 03:50:00,35.9,25.6,29.88,WNW,288,3.0,5.0,66,0.00,,,0.01,Wunderground v.1.15,2013-01-31 08:50:00,
2013-01-31 03:51:00,35.9,26.0,29.88,WNW,303,7.0,10.0,67,0.00,,,0.01,Wunderground v.1.15,2013-01-31 08:51:00,
2013-01-31 03:52:00,35.9,25.6,29.88,NW,306,7.0,10.0,66,0.00,,,0.01,Wunderground v.1.15,2013-01-31 08:52:00,
2013-01-31 03:53:00,35.9,26.0,29.88,WNW,292,3.0,10.0,67,0.00,,,0.01,Wunderground v.1.15,2013-01-31 08:53:00,
2013-01-31 03:55:00,35.8,25.5,29.88,WNW,288,3.0,10.0,66,0.00,,,0.01,Wunderground v.1.15,2013-01-31 08:55:00,
2013-01-31 03:56:00,35.8,25.5,29.88,NW,309,3.0,10.0,66,0.00,,,0.01,Wunderground v.1.15,2013-01-31 08:56:00,
2013-01-31 03:58:00,35.7,26.2,29.89,NW,309,3.0,10.0,68,0.00,,,0.01,Wunderground v.1.15,2013-01-31 08:58:00,
2013-01-31 04:00:00,35.7,25.8,29.89,WNW,289,3.0,4.0,67,0.00,,,0.01,Wunderground v.1.15,2013-01-31 09:00:00,
2013-01-31 04:01:00,35.7,26.2,29.89,WNW,295,5.0,5.0,68,0.00,,,0.01,Wunderground v.1.15,2013-01-31 09:01:00,
2013-01-31 04:03:00,35.6,26.1,29.89,WNW,290,3.0,5.0,68,0.00,,,0.01,Wunderground v.1.15,2013-01-31 09:03:00,
2013-01-31 04:04:00,35.6,25.7,29.89,WNW,290,0.0,5.0,67,0.00,,,0.01,Wunderground v.1.15,2013-01-31 09:04:00,
2013-01-31 04:05:00,35.6,26.1,29.89,West,275,4.0,6.0,68,0.00,,,0.01,Wunderground v.1.15,2013-01-31 09:05:00,
2013-01-31 04:06:00,35.6,26.4,29.89,WNW,299,4.0,7.0,69,0.00,,,0.01,Wunderground v.1.15,2013-01-31 09:06:00,
2013-01-31 04:08:00,35.6,26.4,29.89,NW,308,2.0,7.0,69,0.00,,,0.01,Wunderground v.1.15,2013-01-31 09:08:00,
2013-01-31 04:09:00,35.6,26.4,29.89,NW,308,2.0,7.0,69,0.00,,,0.01,Wunderground v.1.15,2013-01-31 09:09:00,
2013-01-31 04:10:00,35.6,26.4,29.89,NW,308,4.0,4.0,69,0.00,,,0.01,Wunderground v.1.15,2013-01-31 09:10:00,
2013-01-31 04:11:00,35.6,26.4,29.89,NW,306,1.0,5.0,69,0.00,,,0.01,Wunderground v.1.15,2013-01-31 09:11:00,
2013-01-31 04:13:00,35.6,26.4,29.89,NW,326,4.0,8.0,69,0.00,,,0.01,Wunderground v.1.15,2013-01-31 09:13:00,
2013-01-31 04:15:00,35.6,26.4,29.89,West,277,10.0,10.0,69,0.00,,,0.01,Wunderground v.1.15,2013-01-31 09:15:00,
2013-01-31 04:16:00,35.6,26.4,29.89,WNW,292,2.0,11.0,69,0.00,,,0.01,Wunderground v.1.15,2013-01-31 09:16:00,
2013-01-31 04:19:00,35.6,26.4,29.89,WNW,302,2.0,11.0,69,0.00,,,0.01,Wunderground v.1.15,2013-01-31 09:19:00,
2013-01-31 04:20:00,35.6,27.5,29.89,WNW,303,4.0,6.0,72,0.00,,,0.01,Wunderground v.1.15,2013-01-31 09:20:00,
2013-01-31 04:21:00,35.6,26.8,29.89,West,279,4.0,9.0,70,0.00,,,0.01,Wunderground v.1.15,2013-01-31 09:21:00,
2013-01-31 04:24:00,35.6,26.4,29.89,WNW,290,4.0,9.0,69,0.00,,,0.01,Wunderground v.1.15,2013-01-31 09:24:00,
2013-01-31 04:25:00,35.6,26.8,29.89,WNW,289,3.0,9.0,70,0.00,,,0.01,Wunderground v.1.15,2013-01-31 09:25:00,
2013-01-31 04:26:00,35.6,26.8,29.89,WNW,290,2.0,9.0,70,0.00,,,0.01,Wunderground v.1.15,2013-01-31 09:26:00,
2013-01-31 04:27:00,35.5,27.0,29.89,WNW,289,4.0,9.0,71,0.00,,,0.01,Wunderground v.1.15,2013-01-31 09:27:00,
2013-01-31 04:29:00,35.5,27.0,29.89,West,279,4.0,9.0,71,0.00,,,0.01,Wunderground v.1.15,2013-01-31 09:29:00,
2013-01-31 04:30:00,35.5,26.7,29.90,WNW,282,4.0,5.0,70,0.00,,,0.01,Wunderground v.1.15,2013-01-31 09:30:00,
2013-01-31 04:31:00,35.5,27.0,29.90,West,271,6.0,9.0,71,0.00,,,0.01,Wunderground v.1.15,2013-01-31 09:31:00,
2013-01-31 04:33:00,35.5,27.4,29.90,WSW,252,4.0,9.0,72,0.00,,,0.01,Wunderground v.1.15,2013-01-31 09:33:00,
2013-01-31 04:34:00,35.5,27.0,29.90,WSW,252,3.0,9.0,71,0.00,,,0.01,Wunderground v.1.15,2013-01-31 09:34:00,
2013-01-31 04:36:00,35.5,27.0,29.90,SW,226,3.0,9.0,71,0.00,,,0.01,Wunderground v.1.15,2013-01-31 09:36:00,
2013-01-31 04:38:00,35.5,28.0,29.90,SW,226,2.0,9.0,74,0.00,,,0.01,Wunderground v.1.15,2013-01-31 09:38:00,
2013-01-31 04:39:00,35.5,28.0,29.90,SW,226,1.0,9.0,74,0.00,,,0.01,Wunderground v.1.15,2013-01-31 09:39:00,
2013-01-31 04:41:00,35.5,27.7,29.90,SW,234,3.0,6.0,73,0.00,,,0.01,Wunderground v.1.15,2013-01-31 09:41:00,
2013-01-31 04:43:00,35.4,27.6,29.90,SW,225,4.0,7.0,73,0.00,,,0.01,Wunderground v.1.15,2013-01-31 09:43:00,
2013-01-31 04:44:00,35.5,26.7,29.90,WNW,295,6.0,10.0,70,0.00,,,0.01,Wunderground v.1.15,2013-01-31 09:44:00,
2013-01-31 04:46:00,35.5,27.4,29.90,WNW,294,3.0,10.0,72,0.00,,,0.01,Wunderground v.1.15,2013-01-31 09:46:00,
2013-01-31 04:48:00,35.5,27.0,29.90,WNW,288,6.0,10.0,71,0.00,,,0.01,Wunderground v.1.15,2013-01-31 09:48:00,
2013-01-31 04:49:00,35.5,26.0,29.90,WNW,284,5.0,11.0,68,0.00,,,0.01,Wunderground v.1.15,2013-01-31 09:49:00,
2013-01-31 04:51:00,35.5,25.6,29.90,WNW,284,1.0,6.0,67,0.00,,,0.01,Wunderground v.1.15,2013-01-31 09:51:00,
2013-01-31 04:54:00,35.5,27.0,29.90,WNW,291,3.0,6.0,71,0.00,,,0.01,Wunderground v.1.15,2013-01-31 09:54:00,
2013-01-31 04:56:00,35.5,26.0,29.90,WNW,288,3.0,10.0,68,0.00,,,0.01,Wunderground v.1.15,2013-01-31 09:56:00,
2013-01-31 04:57:00,35.5,26.0,29.90,WNW,285,4.0,10.0,68,0.00,,,0.01,Wunderground v.1.15,2013-01-31 09:57:00,
2013-01-31 04:59:00,35.5,26.0,29.91,WNW,284,2.0,10.0,68,0.00,,,0.01,Wunderground v.1.15,2013-01-31 09:59:00,
2013-01-31 05:01:00,35.5,25.6,29.91,WNW,288,0.0,5.0,67,0.00,,,0.01,Wunderground v.1.15,2013-01-31 10:01:00,
2013-01-31 05:02:00,35.5,25.6,29.91,WNW,288,1.0,5.0,67,0.00,,,0.01,Wunderground v.1.15,2013-01-31 10:02:00,
2013-01-31 05:04:00,35.4,25.2,29.90,WNW,295,4.0,9.0,66,0.00,,,0.01,Wunderground v.1.15,2013-01-31 10:04:00,
2013-01-31 05:05:00,35.4,25.2,29.90,West,260,5.0,9.0,66,0.00,,,0.01,Wunderground v.1.15,2013-01-31 10:05:00,
2013-01-31 05:07:00,35.4,25.2,29.91,West,279,3.0,9.0,66,0.00,,,0.01,Wunderground v.1.15,2013-01-31 10:07:00,
2013-01-31 05:10:00,35.3,25.8,29.91,WNW,295,2.0,4.0,68,0.00,,,0.01,Wunderground v.1.15,2013-01-31 10:10:00,
2013-01-31 05:12:00,35.3,25.4,29.91,WNW,295,2.0,4.0,67,0.00,,,0.01,Wunderground v.1.15,2013-01-31 10:12:00,
2013-01-31 05:15:00,35.2,25.7,29.91,SW,228,3.0,6.0,68,0.00,,,0.01,Wunderground v.1.15,2013-01-31 10:15:00,
2013-01-31 05:17:00,35.1,25.6,29.91,SW,229,1.0,6.0,68,0.00,,,0.01,Wunderground v.1.15,2013-01-31 10:17:00,
2013-01-31 05:20:00,35.0,25.5,29.91,SW,229,2.0,2.0,68,0.00,,,0.01,Wunderground v.1.15,2013-01-31 10:20:00,
2013-01-31 05:21:00,35.0,26.2,29.91,SW,229,0.0,2.0,70,0.00,,,0.01,Wunderground v.1.15,2013-01-31 10:21:00,
2013-01-31 05:22:00,35.0,26.5,29.91,SW,229,3.0,3.0,71,0.00,,,0.01,Wunderground v.1.15,2013-01-31 10:22:00,
2013-01-31 05:26:00,34.9,25.8,29.91,SW,229,2.0,3.0,69,0.00,,,0.01,Wunderground v.1.15,2013-01-31 10:26:00,
2013-01-31 05:27:00,34.9,25.8,29.91,SW,229,2.0,3.0,69,0.00,,,0.01,Wunderground v.1.15,2013-01-31 10:27:00,
2013-01-31 05:28:00,34.9,25.8,29.91,SW,229,1.0,3.0,69,0.00,,,0.01,Wunderground v.1.15,2013-01-31 10:28:00,
2013-01-31 05:31:00,34.8,26.0,29.92,SW,229,0.0,2.0,70,0.00,,,0.01,Wunderground v.1.15,2013-01-31 10:31:00,
2013-01-31 05:32:00,34.8,26.4,29.92,SW,229,0.0,2.0,71,0.00,,,0.01,Wunderground v.1.15,2013-01-31 10:32:00,
2013-01-31 05:33:00,34.8,26.4,29.92,SW,229,0.0,2.0,71,0.00,,,0.01,Wunderground v.1.15,2013-01-31 10:33:00,
2013-01-31 05:36:00,34.8,26.4,29.92,SW,229,1.0,3.0,71,0.00,,,0.01,Wunderground v.1.15,2013-01-31 10:36:00,
2013-01-31 05:38:00,34.8,26.7,29.92,SW,229,3.0,3.0,72,0.00,,,0.01,Wunderground v.1.15,2013-01-31 10:38:00,
2013-01-31 05:41:00,34.8,26.4,29.92,SW,233,1.0,4.0,71,0.00,,,0.01,Wunderground v.1.15,2013-01-31 10:41:00,
2013-01-31 05:43:00,34.9,26.1,29.92,SW,233,3.0,4.0,70,0.00,,,0.01,Wunderground v.1.15,2013-01-31 10:43:00,
2013-01-31 05:46:00,34.9,26.4,29.92,SW,233,2.0,4.0,71,0.00,,,0.01,Wunderground v.1.15,2013-01-31 10:46:00,
2013-01-31 05:48:00,34.9,26.4,29.93,SW,234,2.0,4.0,71,0.00,,,0.01,Wunderground v.1.15,2013-01-31 10:48:00,
2013-01-31 05:49:00,35.0,26.9,29.92,SW,234,2.0,4.0,72,0.00,,,0.01,Wunderground v.1.15,2013-01-31 10:49:00,
2013-01-31 05:51:00,35.0,26.5,29.92,SW,223,2.0,4.0,71,0.00,,,0.01,Wunderground v.1.15,2013-01-31 10:51:00,
2013-01-31 05:53:00,35.0,26.9,29.92,SW,223,4.0,4.0,72,0.00,,,0.01,Wunderground v.1.15,2013-01-31 10:53:00,
2013-01-31 05:54:00,35.0,26.9,29.93,SW,225,1.0,4.0,72,0.00,,,0.01,Wunderground v.1.15,2013-01-31 10:54:00,
2013-01-31 05:57:00,35.0,26.9,29.93,SW,225,0.0,4.0,72,0.00,,,0.01,Wunderground v.1.15,2013-01-31 10:57:00,
2013-01-31 05:58:00,35.0,26.9,29.93,SW,226,2.0,4.0,72,0.00,,,0.01,Wunderground v.1.15,2013-01-31 10:58:00,
2013-01-31 05:59:00,35.0,26.9,29.92,SW,226,0.0,4.0,72,0.00,,,0.01,Wunderground v.1.15,2013-01-31 10:59:00,
2013-01-31 06:02:00,35.0,27.5,29.92,SW,226,1.0,2.0,74,0.00,,,0.01,Wunderground v.1.15,2013-01-31 11:02:00,
2013-01-31 06:03:00,35.0,27.5,29.92,SW,226,0.0,2.0,74,0.00,,,0.01,Wunderground v.1.15,2013-01-31 11:03:00,
2013-01-31 06:04:00,35.0,27.9,29.92,SW,226,2.0,3.0,75,0.00,,,0.01,Wunderground v.1.15,2013-01-31 11:04:00,
2013-01-31 06:07:00,35.0,27.5,29.92,SW,226,1.0,3.0,74,0.00,,,0.01,Wunderground v.1.15,2013-01-31 11:07:00,
2013-01-31 06:08:00,35.0,27.5,29.92,SW,226,0.0,3.0,74,0.00,,,0.01,Wunderground v.1.15,2013-01-31 11:08:00,
2013-01-31 06:09:00,35.0,27.9,29.92,SW,226,0.0,3.0,75,0.00,,,0.01,Wunderground v.1.15,2013-01-31 11:09:00,
2013-01-31 06:12:00,34.9,27.8,29.92,SW,226,3.0,4.0,75,0.00,,,0.01,Wunderground v.1.15,2013-01-31 11:12:00,
2013-01-31 06:13:00,34.9,27.8,29.92,West,263,4.0,5.0,75,0.00,,,0.01,Wunderground v.1.15,2013-01-31 11:13:00,
2013-01-31 06:14:00,34.9,27.5,29.92,West,263,1.0,5.0,74,0.00,,,0.01,Wunderground v.1.15,2013-01-31 11:14:00,
2013-01-31 06:17:00,34.8,27.7,29.92,South,188,6.0,9.0,75,0.00,,,0.01,Wunderground v.1.15,2013-01-31 11:17:00,
2013-01-31 06:18:00,34.8,27.0,29.92,SW,230,2.0,9.0,73,0.00,,,0.01,Wunderground v.1.15,2013-01-31 11:18:00,
2013-01-31 06:19:00,34.8,27.4,29.92,SW,232,2.0,9.0,74,0.00,,,0.01,Wunderground v.1.15,2013-01-31 11:19:00,
2013-01-31 06:22:00,34.8,27.7,29.93,SW,214,1.0,6.0,75,0.00,,,0.01,Wunderground v.1.15,2013-01-31 11:22:00,
2013-01-31 06:23:00,34.8,27.7,29.93,WSW,242,6.0,6.0,75,0.00,,,0.01,Wunderground v.1.15,2013-01-31 11:23:00,
2013-01-31 06:24:00,34.8,27.4,29.93,WSW,248,9.0,9.0,74,0.00,,,0.01,Wunderground v.1.15,2013-01-31 11:24:00,
2013-01-31 06:25:00,34.8,27.4,29.93,West,278,6.0,11.0,74,0.00,,,0.01,Wunderground v.1.15,2013-01-31 11:25:00,
2013-01-31 06:27:00,34.8,26.4,29.94,WSW,244,2.0,11.0,71,0.00,,,0.01,Wunderground v.1.15,2013-01-31 11:27:00,
2013-01-31 06:29:00,34.7,25.9,29.94,WNW,286,6.0,11.0,70,0.00,,,0.01,Wunderground v.1.15,2013-01-31 11:29:00,
2013-01-31 06:30:00,34.7,25.9,29.94,WNW,299,2.0,4.0,70,0.00,,,0.01,Wunderground v.1.15,2013-01-31 11:30:00,
2013-01-31 06:32:00,34.6,25.5,29.94,WNW,298,4.0,5.0,69,0.00,,,0.01,Wunderground v.1.15,2013-01-31 11:32:00,
2013-01-31 06:34:00,34.5,25.4,29.94,WNW,298,2.0,5.0,69,0.00,,,0.01,Wunderground v.1.15,2013-01-31 11:34:00,
2013-01-31 06:35:00,34.5,25.4,29.94,WNW,298,2.0,5.0,69,0.00,,,0.01,Wunderground v.1.15,2013-01-31 11:35:00,
2013-01-31 06:38:00,34.4,25.6,29.94,WNW,297,5.0,5.0,70,0.00,,,0.01,Wunderground v.1.15,2013-01-31 11:38:00,
2013-01-31 06:39:00,34.4,25.6,29.94,WNW,292,3.0,7.0,70,0.00,,,0.01,Wunderground v.1.15,2013-01-31 11:39:00,
2013-01-31 06:40:00,34.4,25.3,29.94,WNW,292,4.0,4.0,69,0.00,,,0.01,Wunderground v.1.15,2013-01-31 11:40:00,
2013-01-31 06:43:00,34.4,25.6,29.95,WNW,291,3.0,6.0,70,0.00,,,0.01,Wunderground v.1.15,2013-01-31 11:43:00,
2013-01-31 06:44:00,34.4,25.3,29.95,WNW,292,2.0,6.0,69,0.00,,,0.01,Wunderground v.1.15,2013-01-31 11:44:00,
2013-01-31 06:45:00,34.4,25.6,29.95,WNW,292,2.0,6.0,70,0.00,,,0.01,Wunderground v.1.15,2013-01-31 11:45:00,
2013-01-31 06:48:00,34.4,25.6,29.95,WNW,290,1.0,6.0,70,0.00,,,0.01,Wunderground v.1.15,2013-01-31 11:48:00,
2013-01-31 06:50:00,34.4,25.3,29.95,WNW,290,1.0,2.0,69,0.00,,,0.01,Wunderground v.1.15,2013-01-31 11:50:00,
2013-01-31 06:51:00,34.4,24.9,29.95,WNW,290,2.0,2.0,68,0.00,,,0.01,Wunderground v.1.15,2013-01-31 11:51:00,
2013-01-31 06:53:00,34.4,24.9,29.95,WSW,253,0.0,4.0,68,0.00,,,0.01,Wunderground v.1.15,2013-01-31 11:53:00,
2013-01-31 06:55:00,34.4,24.9,29.95,WSW,253,1.0,4.0,68,0.00,,,0.01,Wunderground v.1.15,2013-01-31 11:55:00,
2013-01-31 06:56:00,34.4,25.3,29.95,WSW,253,1.0,4.0,69,0.00,,,0.01,Wunderground v.1.15,2013-01-31 11:56:00,
2013-01-31 06:58:00,34.4,25.3,29.95,WSW,253,0.0,4.0,69,0.00,,,0.01,Wunderground v.1.15,2013-01-31 11:58:00,
2013-01-31 07:00:00,34.3,25.9,29.95,WSW,253,2.0,2.0,71,0.00,,,0.01,Wunderground v.1.15,2013-01-31 12:00:00,
2013-01-31 07:01:00,34.3,25.9,29.95,WSW,253,1.0,2.0,71,0.00,,,0.01,Wunderground v.1.15,2013-01-31 12:01:00,
2013-01-31 07:03:00,34.2,25.4,29.95,WSW,253,1.0,2.0,70,0.00,,,0.01,Wunderground v.1.15,2013-01-31 12:03:00,
2013-01-31 07:05:00,34.2,25.8,29.95,WSW,253,0.0,2.0,71,0.00,,,0.01,Wunderground v.1.15,2013-01-31 12:05:00,
2013-01-31 07:07:00,34.1,25.7,29.95,WSW,253,0.0,2.0,71,0.00,,,0.01,Wunderground v.1.15,2013-01-31 12:07:00,
2013-01-31 07:09:00,34.1,25.7,29.95,WSW,253,0.0,3.0,71,0.00,,,0.01,Wunderground v.1.15,2013-01-31 12:09:00,
2013-01-31 07:10:00,34.0,25.2,29.95,WSW,253,2.0,3.0,70,0.00,,,0.01,Wunderground v.1.15,2013-01-31 12:10:00,
2013-01-31 07:11:00,34.0,25.6,29.95,WSW,253,0.0,3.0,71,0.00,,,0.01,Wunderground v.1.15,2013-01-31 12:11:00,
2013-01-31 07:12:00,34.0,25.6,29.95,WSW,253,1.0,3.0,71,0.00,,,0.01,Wunderground v.1.15,2013-01-31 12:12:00,
2013-01-31 07:14:00,34.0,25.9,29.95,WSW,253,1.0,3.0,72,0.00,,,0.01,Wunderground v.1.15,2013-01-31 12:14:00,
2013-01-31 07:16:00,34.0,25.9,29.95,WSW,253,2.0,3.0,72,0.00,,,0.01,Wunderground v.1.15,2013-01-31 12:16:00,
2013-01-31 07:17:00,34.0,25.6,29.95,WSW,253,1.0,3.0,71,0.00,,,0.01,Wunderground v.1.15,2013-01-31 12:17:00,
2013-01-31 07:19:00,34.0,25.9,29.95,WSW,253,0.0,3.0,72,0.00,,,0.01,Wunderground v.1.15,2013-01-31 12:19:00,
2013-01-31 07:21:00,34.0,25.9,29.95,WSW,253,1.0,3.0,72,0.00,,,0.01,Wunderground v.1.15,2013-01-31 12:21:00,
2013-01-31 07:22:00,34.0,25.9,29.96,WSW,253,0.0,3.0,72,0.00,,,0.01,Wunderground v.1.15,2013-01-31 12:22:00,
2013-01-31 07:23:00,34.0,26.3,29.96,WSW,253,0.0,3.0,73,0.00,,,0.01,Wunderground v.1.15,2013-01-31 12:23:00,
2013-01-31 07:24:00,34.0,26.3,29.96,WSW,253,0.0,3.0,73,0.00,,,0.01,Wunderground v.1.15,2013-01-31 12:24:00,
2013-01-31 07:26:00,34.0,25.9,29.96,WSW,253,0.0,4.0,72,0.00,,,0.01,Wunderground v.1.15,2013-01-31 12:26:00,
2013-01-31 07:27:00,34.0,25.9,29.96,WSW,253,0.0,4.0,72,0.00,,,0.01,Wunderground v.1.15,2013-01-31 12:27:00,
2013-01-31 07:28:00,34.0,25.9,29.96,WSW,253,2.0,4.0,72,0.00,,,0.01,Wunderground v.1.15,2013-01-31 12:28:00,
2013-01-31 07:29:00,34.0,25.9,29.96,WSW,253,1.0,4.0,72,0.00,,,0.01,Wunderground v.1.15,2013-01-31 12:29:00,
2013-01-31 07:31:00,34.0,26.3,29.97,WSW,253,1.0,3.0,73,0.00,,,0.01,Wunderground v.1.15,2013-01-31 12:31:00,
2013-01-31 07:32:00,34.0,26.9,29.97,WSW,253,4.0,4.0,75,0.00,,,0.01,Wunderground v.1.15,2013-01-31 12:32:00,
2013-01-31 07:33:00,34.0,26.6,29.97,WSW,253,3.0,5.0,74,0.00,,,0.01,Wunderground v.1.15,2013-01-31 12:33:00,
2013-01-31 07:35:00,34.1,26.0,29.97,WSW,253,2.0,5.0,72,0.00,,,0.01,Wunderground v.1.15,2013-01-31 12:35:00,
2013-01-31 07:36:00,34.1,26.3,29.97,SSW,211,1.0,6.0,73,0.00,,,0.01,Wunderground v.1.15,2013-01-31 12:36:00,
2013-01-31 07:37:00,34.1,26.7,29.97,SSW,211,1.0,6.0,74,0.00,,,0.01,Wunderground v.1.15,2013-01-31 12:37:00,
2013-01-31 07:38:00,34.1,26.7,29.97,SSW,211,2.0,6.0,74,0.00,,,0.01,Wunderground v.1.15,2013-01-31 12:38:00,
2013-01-31 07:40:00,34.0,26.6,29.97,SSW,211,2.0,2.0,74,0.00,,,0.01,Wunderground v.1.15,2013-01-31 12:40:00,
2013-01-31 07:42:00,34.0,26.9,29.97,SSW,212,0.0,3.0,75,0.00,,,0.01,Wunderground v.1.15,2013-01-31 12:42:00,
2013-01-31 07:43:00,33.9,26.8,29.98,SW,226,3.0,3.0,75,0.00,,,0.01,Wunderground v.1.15,2013-01-31 12:43:00,
2013-01-31 07:45:00,33.9,26.5,29.98,SW,223,3.0,6.0,74,0.00,,,0.01,Wunderground v.1.15,2013-01-31 12:45:00,
2013-01-31 07:47:00,33.8,26.4,29.97,SW,225,2.0,6.0,74,0.00,,,0.01,Wunderground v.1.15,2013-01-31 12:47:00,
2013-01-31 07:48:00,33.8,26.4,29.97,SW,224,2.0,6.0,74,0.00,,,0.01,Wunderground v.1.15,2013-01-31 12:48:00,
2013-01-31 07:49:00,33.7,26.3,29.97,SW,226,1.0,6.0,74,0.00,,,0.01,Wunderground v.1.15,2013-01-31 12:49:00,
2013-01-31 07:51:00,33.7,26.6,29.97,WNW,295,3.0,5.0,75,0.00,,,0.01,Wunderground v.1.15,2013-01-31 12:51:00,
2013-01-31 07:52:00,33.6,25.9,29.98,WNW,295,2.0,5.0,73,0.00,,,0.01,Wunderground v.1.15,2013-01-31 12:52:00,
2013-01-31 07:53:00,33.6,25.9,29.98,WNW,295,4.0,5.0,73,0.00,,,0.01,Wunderground v.1.15,2013-01-31 12:53:00,
2013-01-31 07:54:00,33.6,25.5,29.97,WNW,292,2.0,5.0,72,0.00,,,0.01,Wunderground v.1.15,2013-01-31 12:54:00,
2013-01-31 07:57:00,33.6,25.2,29.97,SW,222,6.0,9.0,71,0.00,,,0.01,Wunderground v.1.15,2013-01-31 12:57:00,
2013-01-31 07:58:00,33.7,25.3,29.97,West,269,6.0,9.0,71,0.00,,,0.01,Wunderground v.1.15,2013-01-31 12:58:00,
2013-01-31 07:59:00,33.7,25.0,29.98,West,264,3.0,9.0,70,0.00,,,0.01,Wunderground v.1.15,2013-01-31 12:59:00,
2013-01-31 08:02:00,33.9,24.8,29.98,WSW,251,3.0,9.0,69,0.00,,,0.01,Wunderground v.1.15,2013-01-31 13:02:00,
2013-01-31 08:03:00,33.9,25.1,29.98,WNW,292,6.0,9.0,70,0.00,,,0.01,Wunderground v.1.15,2013-01-31 13:03:00,
2013-01-31 08:04:00,33.9,24.8,29.98,West,272,3.0,9.0,69,0.00,,,0.01,Wunderground v.1.15,2013-01-31 13:04:00,
2013-01-31 08:07:00,34.0,25.2,29.99,West,261,5.0,9.0,70,0.00,,,0.01,Wunderground v.1.15,2013-01-31 13:07:00,
2013-01-31 08:08:00,34.0,24.9,29.99,West,271,5.0,9.0,69,0.00,,,0.01,Wunderground v.1.15,2013-01-31 13:08:00,
2013-01-31 08:09:00,34.1,24.6,29.99,WSW,258,4.0,9.0,68,0.00,,,0.01,Wunderground v.1.15,2013-01-31 13:09:00,
2013-01-31 08:13:00,34.1,24.6,29.99,West,277,3.0,8.0,68,0.00,,,0.01,Wunderground v.1.15,2013-01-31 13:13:00,
2013-01-31 08:14:00,34.1,25.3,29.99,West,277,1.0,8.0,70,0.00,,,0.01,Wunderground v.1.15,2013-01-31 13:14:00,
2013-01-31 08:18:00,34.0,24.5,29.99,West,265,2.0,8.0,68,0.00,,,0.01,Wunderground v.1.15,2013-01-31 13:18:00,
2013-01-31 08:19:00,34.1,24.6,30.00,West,265,2.0,8.0,68,0.00,,,0.01,Wunderground v.1.15,2013-01-31 13:19:00,
2013-01-31 08:23:00,34.1,25.0,30.00,WSW,245,3.0,6.0,69,0.00,,,0.01,Wunderground v.1.15,2013-01-31 13:23:00,
2013-01-31 08:24:00,34.1,25.3,30.00,SW,229,6.0,6.0,70,0.00,,,0.01,Wunderground v.1.15,2013-01-31 13:24:00,
2013-01-31 08:25:00,34.1,25.0,30.00,WSW,252,4.0,6.0,69,0.00,,,0.01,Wunderground v.1.15,2013-01-31 13:25:00,
2013-01-31 08:28:00,34.2,25.1,30.00,WSW,252,4.0,6.0,69,0.00,,,0.01,Wunderground v.1.15,2013-01-31 13:28:00,
2013-01-31 08:29:00,34.2,25.8,30.00,West,277,4.0,9.0,71,0.00,,,0.01,Wunderground v.1.15,2013-01-31 13:29:00,
2013-01-31 08:30:00,34.2,25.8,30.00,SW,223,6.0,7.0,71,0.00,,,0.01,Wunderground v.1.15,2013-01-31 13:30:00,
2013-01-31 08:33:00,34.3,25.5,29.99,West,273,2.0,7.0,70,0.00,,,0.01,Wunderground v.1.15,2013-01-31 13:33:00,
2013-01-31 08:34:00,34.3,25.9,29.99,West,273,3.0,7.0,71,0.00,,,0.01,Wunderground v.1.15,2013-01-31 13:34:00,
2013-01-31 08:35:00,34.2,26.4,30.00,West,273,1.0,7.0,73,0.00,,,0.01,Wunderground v.1.15,2013-01-31 13:35:00,
2013-01-31 08:38:00,34.2,26.1,30.00,West,274,2.0,7.0,72,0.00,,,0.01,Wunderground v.1.15,2013-01-31 13:38:00,
2013-01-31 08:39:00,34.1,25.7,30.00,West,276,3.0,7.0,71,0.00,,,0.01,Wunderground v.1.15,2013-01-31 13:39:00,
2013-01-31 08:40:00,34.1,25.3,30.00,West,278,4.0,4.0,70,0.00,,,0.01,Wunderground v.1.15,2013-01-31 13:40:00,
2013-01-31 08:43:00,34.0,25.9,30.01,West,278,0.0,4.0,72,0.00,,,0.01,Wunderground v.1.15,2013-01-31 13:43:00,
2013-01-31 08:44:00,34.0,25.9,30.01,West,277,3.0,4.0,72,0.00,,,0.01,Wunderground v.1.15,2013-01-31 13:44:00,
2013-01-31 08:45:00,34.0,25.9,30.01,West,278,4.0,5.0,72,0.00,,,0.01,Wunderground v.1.15,2013-01-31 13:45:00,
2013-01-31 08:46:00,33.9,25.1,30.01,WNW,290,2.0,5.0,70,0.00,,,0.01,Wunderground v.1.15,2013-01-31 13:46:00,
2013-01-31 08:49:00,33.9,25.1,30.01,WNW,288,2.0,5.0,70,0.00,,,0.01,Wunderground v.1.15,2013-01-31 13:49:00,
2013-01-31 08:50:00,33.9,25.1,30.01,WNW,288,3.0,3.0,70,0.00,,,0.01,Wunderground v.1.15,2013-01-31 13:50:00,
2013-01-31 08:52:00,34.0,25.9,30.01,WNW,288,3.0,5.0,72,0.00,,,0.01,Wunderground v.1.15,2013-01-31 13:52:00,
2013-01-31 08:54:00,34.1,26.0,30.01,WNW,288,2.0,5.0,72,0.00,,,0.01,Wunderground v.1.15,2013-01-31 13:54:00,
2013-01-31 08:55:00,34.1,26.0,30.01,WNW,288,1.0,5.0,72,0.00,,,0.01,Wunderground v.1.15,2013-01-31 13:55:00,
2013-01-31 08:58:00,34.3,26.2,30.01,WNW,288,2.0,5.0,72,0.00,,,0.01,Wunderground v.1.15,2013-01-31 13:58:00,
2013-01-31 08:59:00,34.4,26.3,30.02,WNW,286,2.0,5.0,72,0.00,,,0.01,Wunderground v.1.15,2013-01-31 13:59:00,
2013-01-31 09:00:00,34.4,26.3,30.02,WNW,286,3.0,3.0,72,0.00,,,0.01,Wunderground v.1.15,2013-01-31 14:00:00,
2013-01-31 09:03:00,34.4,25.6,30.02,WNW,286,2.0,4.0,70,0.00,,,0.01,Wunderground v.1.15,2013-01-31 14:03:00,
2013-01-31 09:04:00,34.4,25.6,30.02,WNW,285,2.0,5.0,70,0.00,,,0.01,Wunderground v.1.15,2013-01-31 14:04:00,
2013-01-31 09:05:00,34.4,25.6,30.02,WNW,285,3.0,5.0,70,0.00,,,0.01,Wunderground v.1.15,2013-01-31 14:05:00,
2013-01-31 09:08:00,34.4,25.6,30.02,WNW,288,1.0,5.0,70,0.00,,,0.01,Wunderground v.1.15,2013-01-31 14:08:00,
2013-01-31 09:10:00,34.4,25.6,30.02,WNW,286,1.0,2.0,70,0.00,,,0.01,Wunderground v.1.15,2013-01-31 14:10:00,
2013-01-31 09:13:00,34.4,26.0,30.02,West,280,2.0,4.0,71,0.00,,,0.01,Wunderground v.1.15,2013-01-31 14:13:00,
2013-01-31 09:15:00,34.4,25.6,30.02,West,280,2.0,4.0,70,0.00,,,0.01,Wunderground v.1.15,2013-01-31 14:15:00,
2013-01-31 09:18:00,34.4,26.0,30.02,West,280,2.0,4.0,71,0.00,,,0.01,Wunderground v.1.15,2013-01-31 14:18:00,
2013-01-31 09:20:00,34.5,26.4,30.02,West,280,2.0,4.0,72,0.00,,,0.01,Wunderground v.1.15,2013-01-31 14:20:00,
2013-01-31 09:21:00,34.6,26.2,30.02,West,280,2.0,4.0,71,0.00,,,0.01,Wunderground v.1.15,2013-01-31 14:21:00,
2013-01-31 09:24:00,34.8,26.4,30.02,WNW,292,4.0,6.0,71,0.00,,,0.01,Wunderground v.1.15,2013-01-31 14:24:00,
2013-01-31 09:25:00,34.9,26.1,30.03,WNW,292,1.0,6.0,70,0.00,,,0.01,Wunderground v.1.15,2013-01-31 14:25:00,
2013-01-31 09:26:00,34.9,26.4,30.03,WNW,292,3.0,6.0,71,0.00,,,0.01,Wunderground v.1.15,2013-01-31 14:26:00,
2013-01-31 09:29:00,35.0,26.9,30.03,WNW,292,2.0,6.0,72,0.00,,,0.01,Wunderground v.1.15,2013-01-31 14:29:00,
2013-01-31 09:30:00,35.0,26.5,30.03,WNW,292,2.0,2.0,71,0.00,,,0.01,Wunderground v.1.15,2013-01-31 14:30:00,
2013-01-31 09:32:00,35.1,25.9,30.03,West,269,3.0,5.0,69,0.00,,,0.01,Wunderground v.1.15,2013-01-31 14:32:00,
2013-01-31 09:34:00,35.1,26.3,30.03,West,274,1.0,6.0,70,0.00,,,0.01,Wunderground v.1.15,2013-01-31 14:34:00,
2013-01-31 09:35:00,35.2,26.7,30.03,West,275,3.0,6.0,71,0.00,,,0.01,Wunderground v.1.15,2013-01-31 14:35:00,
2013-01-31 09:36:00,35.2,26.7,30.03,West,275,2.0,6.0,71,0.00,,,0.01,Wunderground v.1.15,2013-01-31 14:36:00,
2013-01-31 09:37:00,35.2,26.4,30.03,WNW,282,3.0,6.0,70,0.00,,,0.01,Wunderground v.1.15,2013-01-31 14:37:00,
2013-01-31 09:39:00,35.3,26.5,30.03,WSW,256,3.0,6.0,70,0.00,,,0.01,Wunderground v.1.15,2013-01-31 14:39:00,
2013-01-31 09:40:00,35.3,25.8,30.04,West,281,3.0,7.0,68,0.00,,,0.01,Wunderground v.1.15,2013-01-31 14:40:00,
2013-01-31 09:42:00,35.4,25.9,30.04,WNW,292,3.0,7.0,68,0.00,,,0.01,Wunderground v.1.15,2013-01-31 14:42:00,
2013-01-31 09:44:00,35.5,26.0,30.04,West,264,3.0,7.0,68,0.00,,,0.01,Wunderground v.1.15,2013-01-31 14:44:00,
2013-01-31 09:46:00,35.6,26.1,30.04,SW,234,2.0,7.0,68,0.00,,,0.01,Wunderground v.1.15,2013-01-31 14:46:00,
2013-01-31 09:47:00,35.6,26.4,30.04,SW,234,3.0,7.0,69,0.00,,,0.01,Wunderground v.1.15,2013-01-31 14:47:00,
2013-01-31 09:50:00,35.8,26.3,30.04,WSW,252,4.0,7.0,68,0.00,,,0.01,Wunderground v.1.15,2013-01-31 14:50:00,
2013-01-31 09:51:00,35.9,26.4,30.04,West,279,4.0,7.0,68,0.00,,,0.01,Wunderground v.1.15,2013-01-31 14:51:00,
2013-01-31 09:52:00,35.9,26.0,30.04,West,279,4.0,7.0,67,0.00,,,0.01,Wunderground v.1.15,2013-01-31 14:52:00,
2013-01-31 09:55:00,36.1,26.6,30.04,West,277,1.0,7.0,68,0.00,,,0.01,Wunderground v.1.15,2013-01-31 14:55:00,
2013-01-31 09:56:00,36.1,26.6,30.04,West,277,1.0,7.0,68,0.00,,,0.01,Wunderground v.1.15,2013-01-31 14:56:00,
2013-01-31 09:57:00,36.2,27.4,30.04,West,278,1.0,7.0,70,0.00,,,0.01,Wunderground v.1.15,2013-01-31 14:57:00,
2013-01-31 09:58:00,36.3,27.4,30.04,SSW,201,6.0,7.0,70,0.00,,,0.01,Wunderground v.1.15,2013-01-31 14:58:00,
2013-01-31 10:01:00,36.4,26.8,30.04,WNW,292,1.0,4.0,68,0.00,,,0.01,Wunderground v.1.15,2013-01-31 15:01:00,
2013-01-31 10:03:00,36.5,26.6,30.04,WNW,290,2.0,4.0,67,0.00,,,0.01,Wunderground v.1.15,2013-01-31 15:03:00,
2013-01-31 10:06:00,36.5,26.2,30.04,WSW,252,6.0,6.0,66,0.00,,,0.01,Wunderground v.1.15,2013-01-31 15:06:00,
2013-01-31 10:08:00,36.5,26.6,30.04,SW,225,4.0,10.0,67,0.00,,,0.01,Wunderground v.1.15,2013-01-31 15:08:00,
2013-01-31 10:11:00,36.6,27.0,30.04,WSW,244,4.0,6.0,68,0.00,,,0.01,Wunderground v.1.15,2013-01-31 15:11:00,
2013-01-31 10:13:00,36.8,26.9,30.04,WSW,250,4.0,6.0,67,0.00,,,0.01,Wunderground v.1.15,2013-01-31 15:13:00,
2013-01-31 10:16:00,36.9,27.3,30.04,WNW,300,6.0,8.0,68,0.00,,,0.01,Wunderground v.1.15,2013-01-31 15:16:00,
2013-01-31 10:18:00,36.9,27.0,30.04,WSW,251,2.0,8.0,67,0.00,,,0.01,Wunderground v.1.15,2013-01-31 15:18:00,
2013-01-31 10:19:00,37.0,27.8,30.04,WSW,250,2.0,8.0,69,0.00,,,0.01,Wunderground v.1.15,2013-01-31 15:19:00,
2013-01-31 10:22:00,37.0,26.7,30.03,WSW,256,4.0,5.0,66,0.00,,,0.01,Wunderground v.1.15,2013-01-31 15:22:00,
2013-01-31 10:23:00,37.1,26.8,30.03,West,269,4.0,6.0,66,0.00,,,0.01,Wunderground v.1.15,2013-01-31 15:23:00,
2013-01-31 10:24:00,37.2,27.2,30.03,West,268,3.0,6.0,67,0.00,,,0.01,Wunderground v.1.15,2013-01-31 15:24:00,
2013-01-31 10:27:00,37.8,27.8,30.03,WSW,243,10.0,10.0,67,0.00,,,0.01,Wunderground v.1.15,2013-01-31 15:27:00,
2013-01-31 10:28:00,37.9,27.9,30.03,West,279,7.0,10.0,67,0.00,,,0.01,Wunderground v.1.15,2013-01-31 15:28:00,
2013-01-31 10:29:00,37.9,27.5,30.04,West,276,2.0,10.0,66,0.00,,,0.01,Wunderground v.1.15,2013-01-31 15:29:00,
2013-01-31 10:32:00,38.1,28.8,30.04,WSW,239,3.0,11.0,69,0.00,,,0.01,Wunderground v.1.15,2013-01-31 15:32:00,
2013-01-31 10:34:00,38.1,28.1,30.04,WSW,248,6.0,11.0,67,0.00,,,0.01,Wunderground v.1.15,2013-01-31 15:34:00,
2013-01-31 10:35:00,38.0,26.9,30.04,West,273,4.0,11.0,64,0.00,,,0.01,Wunderground v.1.15,2013-01-31 15:35:00,
2013-01-31 10:37:00,37.8,26.7,30.04,West,263,4.0,11.0,64,0.00,,,0.01,Wunderground v.1.15,2013-01-31 15:37:00,
2013-01-31 10:39:00,37.7,27.0,30.04,West,264,3.0,11.0,65,0.00,,,0.01,Wunderground v.1.15,2013-01-31 15:39:00,
2013-01-31 10:40:00,37.6,27.6,30.04,West,267,4.0,5.0,67,0.00,,,0.01,Wunderground v.1.15,2013-01-31 15:40:00,
2013-01-31 10:42:00,37.5,26.8,30.04,WNW,293,5.0,9.0,65,0.00,,,0.01,Wunderground v.1.15,2013-01-31 15:42:00,
2013-01-31 10:44:00,37.4,26.7,30.04,WNW,284,5.0,9.0,65,0.00,,,0.01,Wunderground v.1.15,2013-01-31 15:44:00,
2013-01-31 10:45:00,37.4,27.1,30.04,West,261,5.0,9.0,66,0.00,,,0.01,Wunderground v.1.15,2013-01-31 15:45:00,
2013-01-31 10:46:00,37.4,27.8,30.04,West,262,3.0,9.0,68,0.00,,,0.01,Wunderground v.1.15,2013-01-31 15:46:00,
2013-01-31 10:48:00,37.6,26.9,30.04,West,277,4.0,11.0,65,0.00,,,0.01,Wunderground v.1.15,2013-01-31 15:48:00,
2013-01-31 10:49:00,37.8,28.5,30.03,West,276,3.0,11.0,69,0.00,,,0.01,Wunderground v.1.15,2013-01-31 15:49:00,
2013-01-31 10:50:00,38.0,28.0,30.04,WNW,285,11.0,17.0,67,0.00,,,0.01,Wunderground v.1.15,2013-01-31 15:50:00,
2013-01-31 10:51:00,38.1,27.7,30.04,WSW,242,6.0,17.0,66,0.00,,,0.01,Wunderground v.1.15,2013-01-31 15:51:00,
2013-01-31 10:53:00,38.6,27.8,30.04,West,274,4.0,17.0,65,0.00,,,0.01,Wunderground v.1.15,2013-01-31 15:53:00,
2013-01-31 10:54:00,38.7,27.6,30.04,West,272,4.0,17.0,64,0.00,,,0.01,Wunderground v.1.15,2013-01-31 15:54:00,
2013-01-31 10:55:00,38.8,27.3,30.04,West,272,3.0,17.0,63,0.00,,,0.01,Wunderground v.1.15,2013-01-31 15:55:00,
2013-01-31 10:56:00,38.9,27.8,30.04,West,272,8.0,17.0,64,0.00,,,0.01,Wunderground v.1.15,2013-01-31 15:56:00,
2013-01-31 10:58:00,38.8,26.9,30.04,West,278,5.0,17.0,62,0.00,,,0.01,Wunderground v.1.15,2013-01-31 15:58:00,
2013-01-31 11:00:00,38.7,28.3,30.04,West,267,2.0,5.0,66,0.00,,,0.01,Wunderground v.1.15,2013-01-31 16:00:00,
2013-01-31 11:01:00,38.9,28.9,30.04,West,267,2.0,5.0,67,0.00,,,0.01,Wunderground v.1.15,2013-01-31 16:01:00,
2013-01-31 11:03:00,39.2,29.2,30.05,WSW,238,4.0,11.0,67,0.00,,,0.01,Wunderground v.1.15,2013-01-31 16:03:00,
2013-01-31 11:05:00,39.3,28.5,30.05,SW,223,8.0,11.0,65,0.00,,,0.01,Wunderground v.1.15,2013-01-31 16:05:00,
2013-01-31 11:06:00,39.3,28.1,30.05,WNW,283,2.0,11.0,64,0.00,,,0.01,Wunderground v.1.15,2013-01-31 16:06:00,
2013-01-31 11:07:00,39.2,28.0,30.05,West,261,5.0,12.0,64,0.00,,,0.01,Wunderground v.1.15,2013-01-31 16:07:00,
2013-01-31 11:08:00,39.1,27.9,30.05,SW,229,9.0,12.0,64,0.00,,,0.01,Wunderground v.1.15,2013-01-31 16:08:00,
2013-01-31 11:10:00,39.1,27.9,30.05,WNW,300,5.0,6.0,64,0.00,,,0.01,Wunderground v.1.15,2013-01-31 16:10:00,
2013-01-31 11:11:00,39.2,28.0,30.05,West,275,5.0,6.0,64,0.00,,,0.01,Wunderground v.1.15,2013-01-31 16:11:00,
2013-01-31 11:12:00,39.2,28.4,30.05,West,273,6.0,10.0,65,0.00,,,0.01,Wunderground v.1.15,2013-01-31 16:12:00,
2013-01-31 11:13:00,39.1,27.2,30.05,West,261,6.0,12.0,62,0.00,,,0.01,Wunderground v.1.15,2013-01-31 16:13:00,
2013-01-31 11:15:00,39.0,27.1,30.05,West,273,10.0,12.0,62,0.00,,,0.01,Wunderground v.1.15,2013-01-31 16:15:00,
2013-01-31 11:16:00,38.9,27.4,30.05,NNW,338,7.0,12.0,63,0.00,,,0.01,Wunderground v.1.15,2013-01-31 16:16:00,
2013-01-31 11:17:00,38.8,26.9,30.05,West,271,5.0,12.0,62,0.00,,,0.01,Wunderground v.1.15,2013-01-31 16:17:00,
2013-01-31 11:19:00,38.9,27.4,30.06,WNW,292,2.0,14.0,63,0.00,,,0.01,Wunderground v.1.15,2013-01-31 16:19:00,
2013-01-31 11:20:00,38.9,28.1,30.06,WNW,302,10.0,12.0,65,0.00,,,0.01,Wunderground v.1.15,2013-01-31 16:20:00,
2013-01-31 11:21:00,38.9,27.0,30.06,West,263,7.0,13.0,62,0.00,,,0.01,Wunderground v.1.15,2013-01-31 16:21:00,
2013-01-31 11:22:00,38.9,27.0,30.06,West,261,10.0,15.0,62,0.00,,,0.01,Wunderground v.1.15,2013-01-31 16:22:00,
2013-01-31 11:24:00,38.8,26.9,30.05,WNW,291,6.0,15.0,62,0.00,,,0.01,Wunderground v.1.15,2013-01-31 16:24:00,
2013-01-31 11:25:00,38.8,25.7,30.05,WNW,290,6.0,15.0,59,0.00,,,0.01,Wunderground v.1.15,2013-01-31 16:25:00,
2013-01-31 11:26:00,38.6,25.5,30.06,WNW,298,6.0,15.0,59,0.00,,,0.01,Wunderground v.1.15,2013-01-31 16:26:00,
2013-01-31 11:27:00,38.6,26.3,30.06,WSW,253,7.0,15.0,61,0.00,,,0.01,Wunderground v.1.15,2013-01-31 16:27:00,
2013-01-31 11:30:00,38.8,27.3,30.06,WNW,294,3.0,7.0,63,0.00,,,0.01,Wunderground v.1.15,2013-01-31 16:30:00,
2013-01-31 11:32:00,38.9,26.6,30.06,West,263,9.0,14.0,61,0.00,,,0.01,Wunderground v.1.15,2013-01-31 16:32:00,
2013-01-31 11:33:00,38.8,26.1,30.06,West,263,6.0,14.0,60,0.00,,,0.01,Wunderground v.1.15,2013-01-31 16:33:00,
2013-01-31 11:35:00,38.9,26.2,30.06,WNW,283,3.0,19.0,60,0.00,,,0.01,Wunderground v.1.15,2013-01-31 16:35:00,
2013-01-31 11:37:00,39.1,27.2,30.06,West,272,5.0,19.0,62,0.00,,,0.01,Wunderground v.1.15,2013-01-31 16:37:00,
2013-01-31 11:38:00,39.3,27.7,30.06,SW,236,4.0,19.0,63,0.00,,,0.01,Wunderground v.1.15,2013-01-31 16:38:00,
2013-01-31 11:41:00,39.7,26.9,30.07,WSW,244,2.0,11.0,60,0.00,,,0.01,Wunderground v.1.15,2013-01-31 16:41:00,
2013-01-31 11:42:00,39.8,27.8,30.07,West,273,4.0,12.0,62,0.00,,,0.01,Wunderground v.1.15,2013-01-31 16:42:00,
2013-01-31 11:43:00,40.0,27.6,30.07,WSW,246,7.0,12.0,61,0.00,,,0.01,Wunderground v.1.15,2013-01-31 16:43:00,
2013-01-31 11:46:00,40.1,27.7,30.07,SW,233,10.0,14.0,61,0.00,,,0.01,Wunderground v.1.15,2013-01-31 16:46:00,
2013-01-31 11:47:00,40.1,26.5,30.06,WSW,245,11.0,14.0,58,0.00,,,0.01,Wunderground v.1.15,2013-01-31 16:47:00,
2013-01-31 11:48:00,40.1,27.3,30.06,WSW,238,5.0,14.0,60,0.00,,,0.01,Wunderground v.1.15,2013-01-31 16:48:00,
2013-01-31 11:51:00,40.4,27.6,30.06,West,280,4.0,11.0,60,0.00,,,0.01,Wunderground v.1.15,2013-01-31 16:51:00,
2013-01-31 11:52:00,40.5,27.7,30.06,WSW,244,11.0,11.0,60,0.00,,,0.01,Wunderground v.1.15,2013-01-31 16:52:00,
2013-01-31 11:53:00,40.6,27.8,30.06,West,268,1.0,11.0,60,0.00,,,0.01,Wunderground v.1.15,2013-01-31 16:53:00,
2013-01-31 11:56:00,40.7,26.6,30.06,SW,223,13.0,15.0,57,0.00,,,0.01,Wunderground v.1.15,2013-01-31 16:56:00,
2013-01-31 11:57:00,40.7,26.6,30.06,West,277,6.0,15.0,57,0.00,,,0.01,Wunderground v.1.15,2013-01-31 16:57:00,
2013-01-31 11:58:00,40.6,27.4,30.06,West,259,5.0,15.0,59,0.00,,,0.01,Wunderground v.1.15,2013-01-31 16:58:00,
2013-01-31 11:59:00,40.6,27.4,30.06,SW,214,4.0,15.0,59,0.00,,,0.01,Wunderground v.1.15,2013-01-31 16:59:00,
2013-01-31 12:01:00,40.6,26.5,30.06,SSW,208,9.0,13.0,57,0.00,,,0.01,Wunderground v.1.15,2013-01-31 17:01:00,
2013-01-31 12:02:00,40.5,26.4,30.06,WNW,298,3.0,13.0,57,0.00,,,0.01,Wunderground v.1.15,2013-01-31 17:02:00,
2013-01-31 12:03:00,40.6,27.4,30.06,WSW,238,6.0,13.0,59,0.00,,,0.01,Wunderground v.1.15,2013-01-31 17:03:00,
2013-01-31 12:04:00,40.6,26.1,30.06,NW,309,6.0,13.0,56,0.00,,,0.01,Wunderground v.1.15,2013-01-31 17:04:00,
2013-01-31 12:06:00,40.4,25.9,30.06,WNW,286,4.0,13.0,56,0.00,,,0.01,Wunderground v.1.15,2013-01-31 17:06:00,
2013-01-31 12:07:00,40.4,26.8,30.06,WNW,294,5.0,13.0,58,0.00,,,0.01,Wunderground v.1.15,2013-01-31 17:07:00,
2013-01-31 12:08:00,40.5,27.7,30.05,SW,231,7.0,13.0,60,0.00,,,0.01,Wunderground v.1.15,2013-01-31 17:08:00,
2013-01-31 12:09:00,40.6,27.0,30.05,West,267,5.0,13.0,58,0.00,,,0.01,Wunderground v.1.15,2013-01-31 17:09:00,
2013-01-31 12:12:00,40.7,27.5,30.06,WSW,237,7.0,7.0,59,0.00,,,0.01,Wunderground v.1.15,2013-01-31 17:12:00,
2013-01-31 12:13:00,40.6,27.0,30.05,WSW,242,4.0,7.0,58,0.00,,,0.01,Wunderground v.1.15,2013-01-31 17:13:00,
2013-01-31 12:15:00,40.7,26.2,30.06,West,267,5.0,9.0,56,0.00,,,0.01,Wunderground v.1.15,2013-01-31 17:15:00,
2013-01-31 12:17:00,40.6,26.5,30.05,WNW,283,3.0,9.0,57,0.00,,,0.01,Wunderground v.1.15,2013-01-31 17:17:00,
2013-01-31 12:18:00,40.7,26.6,30.05,SW,229,6.0,9.0,57,0.00,,,0.01,Wunderground v.1.15,2013-01-31 17:18:00,
2013-01-31 12:21:00,40.8,28.0,30.05,SW,215,3.0,10.0,60,0.00,,,0.01,Wunderground v.1.15,2013-01-31 17:21:00,
2013-01-31 12:22:00,41.0,27.8,30.06,WSW,248,9.0,10.0,59,0.00,,,0.01,Wunderground v.1.15,2013-01-31 17:22:00,
2013-01-31 12:23:00,41.1,27.9,30.06,WSW,237,10.0,11.0,59,0.00,,,0.01,Wunderground v.1.15,2013-01-31 17:23:00,
2013-01-31 12:26:00,40.9,26.0,30.05,SW,234,10.0,15.0,55,0.00,,,0.01,Wunderground v.1.15,2013-01-31 17:26:00,
2013-01-31 12:27:00,40.9,26.0,30.05,WSW,256,7.0,15.0,55,0.00,,,0.01,Wunderground v.1.15,2013-01-31 17:27:00,
2013-01-31 12:28:00,40.9,26.8,30.05,West,261,3.0,15.0,57,0.00,,,0.01,Wunderground v.1.15,2013-01-31 17:28:00,
2013-01-31 12:29:00,40.9,26.8,30.05,West,263,5.0,15.0,57,0.00,,,0.01,Wunderground v.1.15,2013-01-31 17:29:00,
2013-01-31 12:32:00,41.3,27.2,30.06,West,269,7.0,11.0,57,0.00,,,0.01,Wunderground v.1.15,2013-01-31 17:32:00,
2013-01-31 12:33:00,41.4,26.4,30.06,SW,230,9.0,17.0,55,0.00,,,0.01,Wunderground v.1.15,2013-01-31 17:33:00,
2013-01-31 12:34:00,41.3,26.3,30.06,WSW,242,5.0,17.0,55,0.00,,,0.01,Wunderground v.1.15,2013-01-31 17:34:00,
2013-01-31 12:37:00,41.2,25.8,30.05,West,260,6.0,17.0,54,0.00,,,0.01,Wunderground v.1.15,2013-01-31 17:37:00,
2013-01-31 12:39:00,41.2,26.2,30.06,WSW,254,4.0,18.0,55,0.00,,,0.01,Wunderground v.1.15,2013-01-31 17:39:00,
2013-01-31 12:42:00,41.7,27.6,30.07,West,271,11.0,12.0,57,0.00,,,0.01,Wunderground v.1.15,2013-01-31 17:42:00,
2013-01-31 12:44:00,41.7,26.3,30.07,West,268,15.0,15.0,54,0.00,,,0.01,Wunderground v.1.15,2013-01-31 17:44:00,
2013-01-31 12:45:00,41.7,25.4,30.07,West,277,11.0,15.0,52,0.00,,,0.01,Wunderground v.1.15,2013-01-31 17:45:00,
2013-01-31 12:47:00,41.2,25.3,30.07,West,277,5.0,16.0,53,0.00,,,0.01,Wunderground v.1.15,2013-01-31 17:47:00,
2013-01-31 12:48:00,41.2,25.8,30.07,West,264,3.0,16.0,54,0.00,,,0.01,Wunderground v.1.15,2013-01-31 17:48:00,
2013-01-31 12:50:00,41.4,26.9,30.07,West,266,4.0,10.0,56,0.00,,,0.01,Wunderground v.1.15,2013-01-31 17:50:00,
2013-01-31 12:52:00,41.6,25.7,30.08,WSW,242,7.0,15.0,53,0.00,,,0.01,Wunderground v.1.15,2013-01-31 17:52:00,
2013-01-31 12:53:00,41.5,25.2,30.08,West,277,4.0,15.0,52,0.00,,,0.01,Wunderground v.1.15,2013-01-31 17:53:00,
2013-01-31 12:55:00,41.4,25.5,30.07,WNW,286,6.0,15.0,53,0.00,,,0.01,Wunderground v.1.15,2013-01-31 17:55:00,
2013-01-31 12:56:00,41.3,25.4,30.07,West,270,5.0,15.0,53,0.00,,,0.01,Wunderground v.1.15,2013-01-31 17:56:00,
2013-01-31 12:58:00,41.3,25.9,30.07,WSW,253,10.0,15.0,54,0.00,,,0.01,Wunderground v.1.15,2013-01-31 17:58:00,
2013-01-31 13:00:00,41.3,25.0,30.07,West,279,3.0,16.0,52,0.00,,,0.01,Wunderground v.1.15,2013-01-31 18:00:00,
2013-01-31 13:01:00,41.3,26.8,30.07,SW,227,7.0,16.0,56,0.00,,,0.01,Wunderground v.1.15,2013-01-31 18:01:00,
2013-01-31 13:03:00,41.3,25.9,30.07,WNW,296,5.0,16.0,54,0.00,,,0.01,Wunderground v.1.15,2013-01-31 18:03:00,
2013-01-31 13:06:00,41.2,25.8,30.07,SW,217,10.0,16.0,54,0.00,,,0.01,Wunderground v.1.15,2013-01-31 18:06:00,
2013-01-31 13:08:00,41.1,26.1,30.07,West,279,4.0,16.0,55,0.00,,,0.01,Wunderground v.1.15,2013-01-31 18:08:00,
2013-01-31 13:09:00,41.3,26.8,30.07,WSW,257,4.0,16.0,56,0.00,,,0.01,Wunderground v.1.15,2013-01-31 18:09:00,
2013-01-31 13:11:00,41.3,25.4,30.07,WSW,250,2.0,11.0,53,0.00,,,0.01,Wunderground v.1.15,2013-01-31 18:11:00,
2013-01-31 13:13:00,41.4,25.5,30.07,SW,225,6.0,11.0,53,0.00,,,0.01,Wunderground v.1.15,2013-01-31 18:13:00,
2013-01-31 13:14:00,41.6,26.6,30.07,West,265,4.0,11.0,55,0.00,,,0.01,Wunderground v.1.15,2013-01-31 18:14:00,
2013-01-31 13:16:00,42.0,26.5,30.07,WNW,296,5.0,11.0,54,0.00,,,0.01,Wunderground v.1.15,2013-01-31 18:16:00,
2013-01-31 13:18:00,42.1,26.6,30.07,West,264,4.0,11.0,54,0.00,,,0.01,Wunderground v.1.15,2013-01-31 18:18:00,
2013-01-31 13:19:00,42.2,27.2,30.07,WNW,303,8.0,11.0,55,0.00,,,0.01,Wunderground v.1.15,2013-01-31 18:19:00,
2013-01-31 13:21:00,42.5,27.5,30.07,West,281,2.0,6.0,55,0.00,,,0.01,Wunderground v.1.15,2013-01-31 18:21:00,
2013-01-31 13:22:00,42.6,27.1,30.07,West,269,3.0,6.0,54,0.00,,,0.01,Wunderground v.1.15,2013-01-31 18:22:00,
2013-01-31 13:24:00,42.7,27.6,30.07,SSW,193,5.0,11.0,55,0.00,,,0.01,Wunderground v.1.15,2013-01-31 18:24:00,
2013-01-31 13:25:00,42.7,25.8,30.06,WSW,245,5.0,11.0,51,0.00,,,0.01,Wunderground v.1.15,2013-01-31 18:25:00,
2013-01-31 13:27:00,42.8,27.7,30.07,West,277,9.0,17.0,55,0.00,,,0.01,Wunderground v.1.15,2013-01-31 18:27:00,
2013-01-31 13:28:00,43.0,27.0,30.07,West,273,3.0,17.0,53,0.00,,,0.01,Wunderground v.1.15,2013-01-31 18:28:00,
2013-01-31 13:29:00,43.1,27.6,30.07,West,260,4.0,17.0,54,0.00,,,0.01,Wunderground v.1.15,2013-01-31 18:29:00,
2013-01-31 13:30:00,43.2,26.3,30.07,WSW,257,9.0,10.0,51,0.00,,,0.01,Wunderground v.1.15,2013-01-31 18:30:00,
2013-01-31 13:32:00,43.1,25.7,30.07,West,269,3.0,10.0,50,0.00,,,0.01,Wunderground v.1.15,2013-01-31 18:32:00,
2013-01-31 13:33:00,43.2,26.7,30.07,West,277,1.0,10.0,52,0.00,,,0.01,Wunderground v.1.15,2013-01-31 18:33:00,
2013-01-31 13:34:00,43.2,25.8,30.06,WSW,244,4.0,11.0,50,0.00,,,0.01,Wunderground v.1.15,2013-01-31 18:34:00,
2013-01-31 13:35:00,43.1,26.2,30.06,WNW,285,5.0,11.0,51,0.00,,,0.01,Wunderground v.1.15,2013-01-31 18:35:00,
2013-01-31 13:37:00,43.1,26.2,30.06,SW,223,4.0,12.0,51,0.00,,,0.01,Wunderground v.1.15,2013-01-31 18:37:00,
2013-01-31 13:38:00,43.0,26.6,30.05,SW,230,4.0,12.0,52,0.00,,,0.01,Wunderground v.1.15,2013-01-31 18:38:00,
2013-01-31 13:39:00,43.1,25.7,30.05,SW,225,10.0,12.0,50,0.00,,,0.01,Wunderground v.1.15,2013-01-31 18:39:00,
2013-01-31 13:40:00,43.0,26.1,30.05,SW,234,3.0,7.0,51,0.00,,,0.01,Wunderground v.1.15,2013-01-31 18:40:00,
2013-01-31 13:42:00,43.1,26.7,30.06,WNW,284,5.0,8.0,52,0.00,,,0.01,Wunderground v.1.15,2013-01-31 18:42:00,
2013-01-31 13:43:00,43.1,26.2,30.05,WNW,283,4.0,8.0,51,0.00,,,0.01,Wunderground v.1.15,2013-01-31 18:43:00,
2013-01-31 13:44:00,43.1,26.7,30.05,West,276,2.0,8.0,52,0.00,,,0.01,Wunderground v.1.15,2013-01-31 18:44:00,
2013-01-31 13:46:00,43.2,26.7,30.05,WSW,248,4.0,8.0,52,0.00,,,0.01,Wunderground v.1.15,2013-01-31 18:46:00,
2013-01-31 13:47:00,43.2,26.7,30.05,WSW,246,2.0,8.0,52,0.00,,,0.01,Wunderground v.1.15,2013-01-31 18:47:00,
2013-01-31 13:48:00,43.2,26.3,30.05,WSW,242,3.0,8.0,51,0.00,,,0.01,Wunderground v.1.15,2013-01-31 18:48:00,
2013-01-31 13:50:00,43.2,27.2,30.05,WNW,303,4.0,6.0,53,0.00,,,0.01,Wunderground v.1.15,2013-01-31 18:50:00,
2013-01-31 13:51:00,43.2,26.3,30.05,WNW,300,4.0,6.0,51,0.00,,,0.01,Wunderground v.1.15,2013-01-31 18:51:00,
2013-01-31 13:53:00,42.9,25.5,30.05,SW,218,4.0,10.0,50,0.00,,,0.01,Wunderground v.1.15,2013-01-31 18:53:00,
2013-01-31 13:55:00,42.8,25.4,30.05,WNW,296,3.0,10.0,50,0.00,,,0.01,Wunderground v.1.15,2013-01-31 18:55:00,
2013-01-31 13:56:00,42.8,25.9,30.05,WNW,296,3.0,10.0,51,0.00,,,0.01,Wunderground v.1.15,2013-01-31 18:56:00,
2013-01-31 13:58:00,43.0,26.1,30.05,West,280,4.0,10.0,51,0.00,,,0.01,Wunderground v.1.15,2013-01-31 18:58:00,
2013-01-31 13:59:00,43.1,26.2,30.05,West,280,4.0,10.0,51,0.00,,,0.01,Wunderground v.1.15,2013-01-31 18:59:00,
2013-01-31 14:00:00,43.2,26.3,30.05,West,280,1.0,4.0,51,0.00,,,0.01,Wunderground v.1.15,2013-01-31 19:00:00,
2013-01-31 14:01:00,43.4,27.4,30.05,WSW,254,4.0,6.0,53,0.00,,,0.01,Wunderground v.1.15,2013-01-31 19:01:00,
2013-01-31 14:03:00,43.7,26.3,30.05,WSW,240,4.0,7.0,50,0.00,,,0.01,Wunderground v.1.15,2013-01-31 19:03:00,
2013-01-31 14:04:00,43.7,26.3,30.05,WSW,240,5.0,7.0,50,0.00,,,0.01,Wunderground v.1.15,2013-01-31 19:04:00,
2013-01-31 14:05:00,43.8,26.8,30.05,West,267,4.0,7.0,51,0.00,,,0.01,Wunderground v.1.15,2013-01-31 19:05:00,
2013-01-31 14:06:00,44.0,26.5,30.06,NW,323,4.0,7.0,50,0.00,,,0.01,Wunderground v.1.15,2013-01-31 19:06:00,
2013-01-31 14:09:00,44.0,26.5,30.05,West,273,7.0,11.0,50,0.00,,,0.01,Wunderground v.1.15,2013-01-31 19:09:00,
2013-01-31 14:10:00,43.6,25.7,30.04,WSW,246,6.0,9.0,49,0.00,,,0.01,Wunderground v.1.15,2013-01-31 19:10:00,
2013-01-31 14:11:00,43.5,24.1,30.04,WSW,252,7.0,9.0,46,0.00,,,0.01,Wunderground v.1.15,2013-01-31 19:11:00,
2013-01-31 14:14:00,43.5,26.6,30.05,West,263,4.0,9.0,51,0.00,,,0.01,Wunderground v.1.15,2013-01-31 19:14:00,
2013-01-31 14:15:00,43.7,26.3,30.05,WSW,250,4.0,9.0,50,0.00,,,0.01,Wunderground v.1.15,2013-01-31 19:15:00,
2013-01-31 14:16:00,43.8,26.3,30.04,WSW,257,5.0,9.0,50,0.00,,,0.01,Wunderground v.1.15,2013-01-31 19:16:00,
2013-01-31 14:19:00,44.0,27.0,30.04,WNW,297,6.0,9.0,51,0.00,,,0.01,Wunderground v.1.15,2013-01-31 19:19:00,
2013-01-31 14:21:00,44.2,27.2,30.04,West,267,4.0,6.0,51,0.00,,,0.01,Wunderground v.1.15,2013-01-31 19:21:00,
2013-01-31 14:24:00,44.5,25.5,30.04,SW,222,2.0,7.0,47,0.00,,,0.01,Wunderground v.1.15,2013-01-31 19:24:00,
2013-01-31 14:26:00,44.5,26.5,30.04,West,263,3.0,12.0,49,0.00,,,0.01,Wunderground v.1.15,2013-01-31 19:26:00,
2013-01-31 14:27:00,44.5,26.5,30.04,SW,232,4.0,12.0,49,0.00,,,0.01,Wunderground v.1.15,2013-01-31 19:27:00,
2013-01-31 14:29:00,44.7,27.7,30.04,SW,232,4.0,12.0,51,0.00,,,0.01,Wunderground v.1.15,2013-01-31 19:29:00,
2013-01-31 14:31:00,45.0,27.5,30.04,SW,233,7.0,7.0,50,0.00,,,0.01,Wunderground v.1.15,2013-01-31 19:31:00,
2013-01-31 14:32:00,45.0,26.5,30.04,WSW,245,3.0,10.0,48,0.00,,,0.01,Wunderground v.1.15,2013-01-31 19:32:00,
2013-01-31 14:34:00,45.0,27.0,30.04,West,280,6.0,10.0,49,0.00,,,0.01,Wunderground v.1.15,2013-01-31 19:34:00,
2013-01-31 14:35:00,45.0,26.5,30.04,WNW,303,4.0,10.0,48,0.00,,,0.01,Wunderground v.1.15,2013-01-31 19:35:00,
2013-01-31 14:36:00,45.0,26.5,30.04,SSW,210,4.0,10.0,48,0.00,,,0.01,Wunderground v.1.15,2013-01-31 19:36:00,
2013-01-31 14:37:00,44.8,25.8,30.04,WNW,285,4.0,10.0,47,0.00,,,0.01,Wunderground v.1.15,2013-01-31 19:37:00,
2013-01-31 14:39:00,44.7,26.2,30.04,SW,223,6.0,10.0,48,0.00,,,0.01,Wunderground v.1.15,2013-01-31 19:39:00,
2013-01-31 14:40:00,44.7,26.2,30.04,SW,227,4.0,6.0,48,0.00,,,0.01,Wunderground v.1.15,2013-01-31 19:40:00,
2013-01-31 14:41:00,44.6,26.1,30.04,SW,215,3.0,10.0,48,0.00,,,0.01,Wunderground v.1.15,2013-01-31 19:41:00,
2013-01-31 14:42:00,44.7,26.7,30.04,SW,215,7.0,10.0,49,0.00,,,0.01,Wunderground v.1.15,2013-01-31 19:42:00,
2013-01-31 14:45:00,44.8,25.8,30.04,SSW,211,9.0,10.0,47,0.00,,,0.01,Wunderground v.1.15,2013-01-31 19:45:00,
2013-01-31 14:46:00,44.7,26.2,30.04,West,277,11.0,11.0,48,0.00,,,0.01,Wunderground v.1.15,2013-01-31 19:46:00,
2013-01-31 14:47:00,44.8,25.8,30.04,West,261,3.0,11.0,47,0.00,,,0.01,Wunderground v.1.15,2013-01-31 19:47:00,
2013-01-31 14:50:00,45.0,26.0,30.05,West,275,5.0,5.0,47,0.00,,,0.01,Wunderground v.1.15,2013-01-31 19:50:00,
2013-01-31 14:52:00,45.2,26.7,30.05,West,280,3.0,7.0,48,0.00,,,0.01,Wunderground v.1.15,2013-01-31 19:52:00,
2013-01-31 14:55:00,45.6,27.0,30.05,WSW,250,3.0,10.0,48,0.00,,,0.01,Wunderground v.1.15,2013-01-31 19:55:00,
2013-01-31 14:57:00,46.0,26.9,30.05,West,262,3.0,10.0,47,0.00,,,0.01,Wunderground v.1.15,2013-01-31 19:57:00,
2013-01-31 15:00:00,46.3,25.6,30.05,WSW,242,7.0,10.0,44,0.00,,,0.01,Wunderground v.1.15,2013-01-31 20:00:00,
2013-01-31 15:01:00,46.3,25.6,30.05,West,265,5.0,10.0,44,0.00,,,0.01,Wunderground v.1.15,2013-01-31 20:01:00,
2013-01-31 15:02:00,46.2,24.9,30.05,West,259,5.0,13.0,43,0.00,,,0.01,Wunderground v.1.15,2013-01-31 20:02:00,
2013-01-31 15:03:00,46.2,24.9,30.05,West,264,4.0,13.0,43,0.00,,,0.01,Wunderground v.1.15,2013-01-31 20:03:00,
2013-01-31 15:06:00,45.9,24.6,30.05,NW,318,2.0,13.0,43,0.00,,,0.01,Wunderground v.1.15,2013-01-31 20:06:00,
2013-01-31 15:07:00,46.0,25.3,30.05,West,260,3.0,13.0,44,0.00,,,0.01,Wunderground v.1.15,2013-01-31 20:07:00,
2013-01-31 15:08:00,46.0,25.8,30.05,West,260,3.0,13.0,45,0.00,,,0.01,Wunderground v.1.15,2013-01-31 20:08:00,
2013-01-31 15:11:00,46.2,25.5,30.04,WSW,251,3.0,12.0,44,0.00,,,0.01,Wunderground v.1.15,2013-01-31 20:11:00,
2013-01-31 15:12:00,46.2,24.9,30.04,WSW,253,4.0,12.0,43,0.00,,,0.01,Wunderground v.1.15,2013-01-31 20:12:00,
2013-01-31 15:13:00,46.1,25.4,30.04,NW,321,4.0,12.0,44,0.00,,,0.01,Wunderground v.1.15,2013-01-31 20:13:00,
2013-01-31 15:16:00,46.1,27.0,30.04,NNW,327,4.0,12.0,47,0.00,,,0.01,Wunderground v.1.15,2013-01-31 20:16:00,
2013-01-31 15:17:00,46.2,25.5,30.04,West,259,9.0,12.0,44,0.00,,,0.01,Wunderground v.1.15,2013-01-31 20:17:00,
2013-01-31 15:18:00,46.2,25.5,30.04,West,259,2.0,12.0,44,0.00,,,0.01,Wunderground v.1.15,2013-01-31 20:18:00,
2013-01-31 15:21:00,46.1,24.8,30.05,WNW,288,6.0,10.0,43,0.00,,,0.01,Wunderground v.1.15,2013-01-31 20:21:00,
2013-01-31 15:22:00,46.1,25.4,30.05,WNW,296,5.0,10.0,44,0.00,,,0.01,Wunderground v.1.15,2013-01-31 20:22:00,
2013-01-31 15:23:00,46.1,25.4,30.05,WNW,301,3.0,10.0,44,0.00,,,0.01,Wunderground v.1.15,2013-01-31 20:23:00,
2013-01-31 15:24:00,46.0,25.3,30.05,WNW,302,6.0,10.0,44,0.00,,,0.01,Wunderground v.1.15,2013-01-31 20:24:00,
2013-01-31 15:26:00,46.1,24.8,30.05,West,279,2.0,10.0,43,0.00,,,0.01,Wunderground v.1.15,2013-01-31 20:26:00,
2013-01-31 15:27:00,46.1,25.4,30.05,West,279,2.0,10.0,44,0.00,,,0.01,Wunderground v.1.15,2013-01-31 20:27:00,
2013-01-31 15:28:00,46.1,25.9,30.04,West,279,1.0,10.0,45,0.00,,,0.01,Wunderground v.1.15,2013-01-31 20:28:00,
2013-01-31 15:29:00,46.1,25.9,30.04,West,269,5.0,10.0,45,0.00,,,0.01,Wunderground v.1.15,2013-01-31 20:29:00,
2013-01-31 15:31:00,46.4,26.2,30.05,West,269,2.0,4.0,45,0.00,,,0.01,Wunderground v.1.15,2013-01-31 20:31:00,
2013-01-31 15:32:00,46.5,25.7,30.04,West,279,2.0,5.0,44,0.00,,,0.01,Wunderground v.1.15,2013-01-31 20:32:00,
2013-01-31 15:33:00,46.6,25.3,30.04,West,278,3.0,5.0,43,0.00,,,0.01,Wunderground v.1.15,2013-01-31 20:33:00,
2013-01-31 15:34:00,46.6,26.9,30.04,West,278,1.0,5.0,46,0.00,,,0.01,Wunderground v.1.15,2013-01-31 20:34:00,
2013-01-31 15:37:00,47.0,25.6,30.04,WSW,249,4.0,7.0,43,0.00,,,0.01,Wunderground v.1.15,2013-01-31 20:37:00,
2013-01-31 15:38:00,47.0,25.6,30.04,WNW,286,5.0,7.0,43,0.00,,,0.01,Wunderground v.1.15,2013-01-31 20:38:00,
2013-01-31 15:39:00,47.1,26.3,30.04,SW,234,6.0,7.0,44,0.00,,,0.01,Wunderground v.1.15,2013-01-31 20:39:00,
2013-01-31 15:42:00,47.0,26.2,30.03,SW,230,3.0,13.0,44,0.00,,,0.01,Wunderground v.1.15,2013-01-31 20:42:00,
2013-01-31 15:43:00,46.9,26.1,30.03,West,259,4.0,13.0,44,0.00,,,0.01,Wunderground v.1.15,2013-01-31 20:43:00,
2013-01-31 15:44:00,46.9,26.1,30.04,SW,215,11.0,13.0,44,0.00,,,0.01,Wunderground v.1.15,2013-01-31 20:44:00,
2013-01-31 15:47:00,46.8,25.5,30.03,NW,316,4.0,13.0,43,0.00,,,0.01,Wunderground v.1.15,2013-01-31 20:47:00,
2013-01-31 15:48:00,46.7,24.8,30.03,SW,225,6.0,15.0,42,0.00,,,0.01,Wunderground v.1.15,2013-01-31 20:48:00,
2013-01-31 15:49:00,46.7,25.9,30.03,West,277,8.0,15.0,44,0.00,,,0.01,Wunderground v.1.15,2013-01-31 20:49:00,
2013-01-31 15:50:00,46.7,25.9,30.03,West,278,4.0,6.0,44,0.00,,,0.01,Wunderground v.1.15,2013-01-31 20:50:00,
2013-01-31 15:52:00,46.6,25.8,30.04,WSW,256,4.0,7.0,44,0.00,,,0.01,Wunderground v.1.15,2013-01-31 20:52:00,
2013-01-31 15:53:00,46.6,25.3,30.04,West,272,5.0,7.0,43,0.00,,,0.01,Wunderground v.1.15,2013-01-31 20:53:00,
2013-01-31 15:54:00,46.6,24.7,30.03,West,272,3.0,7.0,42,0.00,,,0.01,Wunderground v.1.15,2013-01-31 20:54:00,
2013-01-31 15:55:00,46.6,24.7,30.03,West,273,2.0,7.0,42,0.00,,,0.01,Wunderground v.1.15,2013-01-31 20:55:00,
2013-01-31 15:57:00,46.7,25.9,30.03,West,266,4.0,7.0,44,0.00,,,0.01,Wunderground v.1.15,2013-01-31 20:57:00,
2013-01-31 15:58:00,46.8,26.0,30.03,West,280,2.0,7.0,44,0.00,,,0.01,Wunderground v.1.15,2013-01-31 20:58:00,
2013-01-31 15:59:00,46.8,26.6,30.02,West,281,2.0,7.0,45,0.00,,,0.01,Wunderground v.1.15,2013-01-31 20:59:00,
2013-01-31 16:00:00,46.9,26.6,30.02,WNW,286,6.0,6.0,45,0.00,,,0.01,Wunderground v.1.15,2013-01-31 21:00:00,
2013-01-31 16:02:00,47.0,26.2,30.03,WSW,254,5.0,10.0,44,0.00,,,0.01,Wunderground v.1.15,2013-01-31 21:02:00,
2013-01-31 16:04:00,46.9,25.5,30.02,SW,214,3.0,10.0,43,0.00,,,0.01,Wunderground v.1.15,2013-01-31 21:04:00,
2013-01-31 16:05:00,46.8,25.5,30.03,SW,219,5.0,10.0,43,0.00,,,0.01,Wunderground v.1.15,2013-01-31 21:05:00,
2013-01-31 16:08:00,46.6,26.4,30.03,West,281,4.0,10.0,45,0.00,,,0.01,Wunderground v.1.15,2013-01-31 21:08:00,
2013-01-31 16:09:00,46.6,25.8,30.03,West,265,3.0,10.0,44,0.00,,,0.01,Wunderground v.1.15,2013-01-31 21:09:00,
2013-01-31 16:10:00,46.5,25.2,30.03,WNW,286,2.0,4.0,43,0.00,,,0.01,Wunderground v.1.15,2013-01-31 21:10:00,
2013-01-31 16:13:00,46.4,25.6,30.03,WSW,257,3.0,7.0,44,0.00,,,0.01,Wunderground v.1.15,2013-01-31 21:13:00,
2013-01-31 16:14:00,46.4,25.6,30.03,WNW,298,3.0,7.0,44,0.00,,,0.01,Wunderground v.1.15,2013-01-31 21:14:00,
2013-01-31 16:15:00,46.3,25.0,30.03,WNW,297,4.0,7.0,43,0.00,,,0.01,Wunderground v.1.15,2013-01-31 21:15:00,
2013-01-31 16:18:00,46.2,24.9,30.03,WNW,292,3.0,7.0,43,0.00,,,0.01,Wunderground v.1.15,2013-01-31 21:18:00,
2013-01-31 16:20:00,46.1,25.9,30.03,West,274,3.0,4.0,45,0.00,,,0.01,Wunderground v.1.15,2013-01-31 21:20:00,
2013-01-31 16:23:00,46.1,24.8,30.03,WNW,290,3.0,6.0,43,0.00,,,0.01,Wunderground v.1.15,2013-01-31 21:23:00,
2013-01-31 16:25:00,46.1,25.4,30.03,WNW,291,3.0,6.0,44,0.00,,,0.01,Wunderground v.1.15,2013-01-31 21:25:00,
2013-01-31 16:29:00,46.1,25.9,30.03,WNW,290,4.0,6.0,45,0.00,,,0.01,Wunderground v.1.15,2013-01-31 21:29:00,
2013-01-31 16:30:00,46.2,26.5,30.03,WNW,288,2.0,4.0,46,0.00,,,0.01,Wunderground v.1.15,2013-01-31 21:30:00,
2013-01-31 16:31:00,46.2,26.5,30.03,WNW,286,4.0,5.0,46,0.00,,,0.01,Wunderground v.1.15,2013-01-31 21:31:00,
2013-01-31 16:35:00,46.2,26.0,30.03,West,260,3.0,10.0,45,0.00,,,0.01,Wunderground v.1.15,2013-01-31 21:35:00,
2013-01-31 16:36:00,46.2,26.5,30.03,West,259,7.0,10.0,46,0.00,,,0.01,Wunderground v.1.15,2013-01-31 21:36:00,
2013-01-31 16:40:00,46.0,25.8,30.03,SW,225,2.0,5.0,45,0.00,,,0.01,Wunderground v.1.15,2013-01-31 21:40:00,
2013-01-31 16:41:00,46.0,26.4,30.03,WSW,248,5.0,8.0,46,0.00,,,0.01,Wunderground v.1.15,2013-01-31 21:41:00,
2013-01-31 16:42:00,45.9,26.3,30.03,West,260,2.0,8.0,46,0.00,,,0.01,Wunderground v.1.15,2013-01-31 21:42:00,
2013-01-31 16:45:00,45.9,26.3,30.03,WNW,295,2.0,11.0,46,0.00,,,0.01,Wunderground v.1.15,2013-01-31 21:45:00,
2013-01-31 16:46:00,45.9,26.8,30.03,WNW,295,2.0,11.0,47,0.00,,,0.01,Wunderground v.1.15,2013-01-31 21:46:00,
2013-01-31 16:47:00,45.9,26.8,30.03,WNW,295,3.0,11.0,47,0.00,,,0.01,Wunderground v.1.15,2013-01-31 21:47:00,
2013-01-31 16:50:00,46.1,25.9,30.03,WNW,292,0.0,3.0,45,0.00,,,0.01,Wunderground v.1.15,2013-01-31 21:50:00,
2013-01-31 16:51:00,46.1,25.9,30.03,West,265,4.0,4.0,45,0.00,,,0.01,Wunderground v.1.15,2013-01-31 21:51:00,
2013-01-31 16:52:00,46.1,25.9,30.03,West,266,4.0,4.0,45,0.00,,,0.01,Wunderground v.1.15,2013-01-31 21:52:00,
2013-01-31 16:55:00,45.9,25.7,30.03,WSW,255,5.0,7.0,45,0.00,,,0.01,Wunderground v.1.15,2013-01-31 21:55:00,
2013-01-31 16:57:00,45.8,25.6,30.03,WSW,255,2.0,7.0,45,0.00,,,0.01,Wunderground v.1.15,2013-01-31 21:57:00,
2013-01-31 16:58:00,45.7,26.1,30.03,WSW,255,2.0,7.0,46,0.00,,,0.01,Wunderground v.1.15,2013-01-31 21:58:00,
2013-01-31 17:00:00,45.6,27.5,30.03,SW,225,0.0,3.0,49,0.00,,,0.01,Wunderground v.1.15,2013-01-31 22:00:00,
2013-01-31 17:02:00,45.6,26.5,30.03,WSW,237,4.0,4.0,47,0.00,,,0.01,Wunderground v.1.15,2013-01-31 22:02:00,
2013-01-31 17:03:00,45.6,26.0,30.03,WSW,238,2.0,4.0,46,0.00,,,0.01,Wunderground v.1.15,2013-01-31 22:03:00,
2013-01-31 17:05:00,45.5,25.9,30.03,West,264,4.0,11.0,46,0.00,,,0.01,Wunderground v.1.15,2013-01-31 22:05:00,
2013-01-31 17:07:00,45.4,27.3,30.03,WNW,284,2.0,11.0,49,0.00,,,0.01,Wunderground v.1.15,2013-01-31 22:07:00,
2013-01-31 17:08:00,45.4,27.3,30.03,WNW,284,1.0,11.0,49,0.00,,,0.01,Wunderground v.1.15,2013-01-31 22:08:00,
2013-01-31 17:11:00,45.3,26.2,30.03,WSW,245,3.0,7.0,47,0.00,,,0.01,Wunderground v.1.15,2013-01-31 22:11:00,
2013-01-31 17:13:00,45.2,26.1,30.03,West,270,3.0,9.0,47,0.00,,,0.01,Wunderground v.1.15,2013-01-31 22:13:00,
2013-01-31 17:16:00,45.2,26.7,30.03,West,259,4.0,9.0,48,0.00,,,0.01,Wunderground v.1.15,2013-01-31 22:16:00,
2013-01-31 17:18:00,45.1,25.5,30.03,NW,310,4.0,9.0,46,0.00,,,0.01,Wunderground v.1.15,2013-01-31 22:18:00,
2013-01-31 17:19:00,45.1,25.5,30.03,West,273,4.0,10.0,46,0.00,,,0.01,Wunderground v.1.15,2013-01-31 22:19:00,
2013-01-31 17:21:00,45.0,25.4,30.03,West,276,3.0,6.0,46,0.00,,,0.01,Wunderground v.1.15,2013-01-31 22:21:00,
2013-01-31 17:23:00,44.9,25.9,30.03,West,276,2.0,6.0,47,0.00,,,0.01,Wunderground v.1.15,2013-01-31 22:23:00,
2013-01-31 17:24:00,44.9,25.9,30.03,West,276,1.0,6.0,47,0.00,,,0.01,Wunderground v.1.15,2013-01-31 22:24:00,
2013-01-31 17:27:00,44.8,26.3,30.03,SW,225,2.0,7.0,48,0.00,,,0.01,Wunderground v.1.15,2013-01-31 22:27:00,
2013-01-31 17:28:00,44.7,26.7,30.03,West,281,4.0,7.0,49,0.00,,,0.01,Wunderground v.1.15,2013-01-31 22:28:00,
2013-01-31 17:29:00,44.7,26.7,30.03,West,281,2.0,7.0,49,0.00,,,0.01,Wunderground v.1.15,2013-01-31 22:29:00,
2013-01-31 17:32:00,44.7,26.2,30.03,West,267,6.0,7.0,48,0.00,,,0.01,Wunderground v.1.15,2013-01-31 22:32:00,
2013-01-31 17:33:00,44.7,26.2,30.03,WNW,286,3.0,7.0,48,0.00,,,0.01,Wunderground v.1.15,2013-01-31 22:33:00,
2013-01-31 17:34:00,44.6,26.1,30.03,West,280,2.0,7.0,48,0.00,,,0.01,Wunderground v.1.15,2013-01-31 22:34:00,
2013-01-31 17:35:00,44.7,26.7,30.03,West,280,3.0,7.0,49,0.00,,,0.01,Wunderground v.1.15,2013-01-31 22:35:00,
2013-01-31 17:37:00,44.6,26.6,30.04,West,280,2.0,7.0,49,0.00,,,0.01,Wunderground v.1.15,2013-01-31 22:37:00,
2013-01-31 17:39:00,44.6,27.1,30.03,WNW,282,3.0,7.0,50,0.00,,,0.01,Wunderground v.1.15,2013-01-31 22:39:00,
2013-01-31 17:40:00,44.6,27.6,30.03,WSW,254,4.0,4.0,51,0.00,,,0.01,Wunderground v.1.15,2013-01-31 22:40:00,
2013-01-31 17:42:00,44.5,26.5,30.04,WSW,253,4.0,4.0,49,0.00,,,0.01,Wunderground v.1.15,2013-01-31 22:42:00,
2013-01-31 17:44:00,44.5,26.5,30.03,SW,222,0.0,5.0,49,0.00,,,0.01,Wunderground v.1.15,2013-01-31 22:44:00,
2013-01-31 17:45:00,44.4,27.4,30.03,SW,223,2.0,5.0,51,0.00,,,0.01,Wunderground v.1.15,2013-01-31 22:45:00,
2013-01-31 17:48:00,44.3,26.8,30.04,SW,227,0.0,6.0,50,0.00,,,0.01,Wunderground v.1.15,2013-01-31 22:48:00,
2013-01-31 17:49:00,44.2,27.7,30.03,SW,229,6.0,6.0,52,0.00,,,0.01,Wunderground v.1.15,2013-01-31 22:49:00,
2013-01-31 17:50:00,44.1,26.1,30.03,WSW,238,2.0,4.0,49,0.00,,,0.01,Wunderground v.1.15,2013-01-31 22:50:00,
2013-01-31 17:53:00,43.9,26.4,30.03,West,267,2.0,5.0,50,0.00,,,0.01,Wunderground v.1.15,2013-01-31 22:53:00,
2013-01-31 17:55:00,43.7,26.3,30.03,WSW,246,2.0,5.0,50,0.00,,,0.01,Wunderground v.1.15,2013-01-31 22:55:00,
2013-01-31 17:58:00,43.5,26.6,30.02,WSW,246,1.0,5.0,51,0.00,,,0.01,Wunderground v.1.15,2013-01-31 22:58:00,
2013-01-31 18:00:00,43.3,26.8,30.03,WSW,249,2.0,4.0,52,0.00,,,0.01,Wunderground v.1.15,2013-01-31 23:00:00,
2013-01-31 18:01:00,43.3,26.8,30.03,West,267,5.0,5.0,52,0.00,,,0.01,Wunderground v.1.15,2013-01-31 23:01:00,
2013-01-31 18:03:00,43.1,27.1,30.03,West,269,1.0,5.0,53,0.00,,,0.01,Wunderground v.1.15,2013-01-31 23:03:00,
2013-01-31 18:05:00,42.9,27.4,30.02,West,269,4.0,5.0,54,0.00,,,0.01,Wunderground v.1.15,2013-01-31 23:05:00,
2013-01-31 18:06:00,42.8,27.3,30.03,West,269,2.0,5.0,54,0.00,,,0.01,Wunderground v.1.15,2013-01-31 23:06:00,
2013-01-31 18:08:00,42.6,27.1,30.03,West,269,2.0,5.0,54,0.00,,,0.01,Wunderground v.1.15,2013-01-31 23:08:00,
2013-01-31 18:10:00,42.4,26.9,30.03,West,269,0.0,2.0,54,0.00,,,0.01,Wunderground v.1.15,2013-01-31 23:10:00,
2013-01-31 18:11:00,42.4,26.9,30.03,West,269,1.0,2.0,54,0.00,,,0.01,Wunderground v.1.15,2013-01-31 23:11:00,
2013-01-31 18:13:00,42.2,27.2,30.03,West,269,1.0,2.0,55,0.00,,,0.01,Wunderground v.1.15,2013-01-31 23:13:00,
2013-01-31 18:15:00,42.0,27.9,30.02,West,269,0.0,3.0,57,0.00,,,0.01,Wunderground v.1.15,2013-01-31 23:15:00,
2013-01-31 18:16:00,41.9,28.2,30.02,West,269,0.0,3.0,58,0.00,,,0.01,Wunderground v.1.15,2013-01-31 23:16:00,
2013-01-31 18:18:00,41.7,27.6,30.02,West,269,1.0,3.0,57,0.00,,,0.01,Wunderground v.1.15,2013-01-31 23:18:00,
2013-01-31 18:21:00,41.4,26.9,30.02,West,269,2.0,3.0,56,0.00,,,0.01,Wunderground v.1.15,2013-01-31 23:21:00,
2013-01-31 18:24:00,41.2,26.7,30.03,West,269,0.0,3.0,56,0.00,,,0.01,Wunderground v.1.15,2013-01-31 23:24:00,
2013-01-31 18:26:00,41.1,27.4,30.03,West,269,0.0,3.0,58,0.00,,,0.01,Wunderground v.1.15,2013-01-31 23:26:00,
2013-01-31 18:29:00,40.9,26.8,30.03,WSW,246,0.0,5.0,57,0.00,,,0.01,Wunderground v.1.15,2013-01-31 23:29:00,
2013-01-31 18:31:00,40.8,26.7,30.03,WSW,246,0.0,2.0,57,0.00,,,0.01,Wunderground v.1.15,2013-01-31 23:31:00,
2013-01-31 18:34:00,40.7,27.1,30.03,WSW,246,1.0,3.0,58,0.00,,,0.01,Wunderground v.1.15,2013-01-31 23:34:00,
2013-01-31 18:36:00,40.6,27.0,30.03,WSW,251,4.0,4.0,58,0.00,,,0.01,Wunderground v.1.15,2013-01-31 23:36:00,
2013-01-31 18:37:00,40.6,26.1,30.03,WSW,255,2.0,5.0,56,0.00,,,0.01,Wunderground v.1.15,2013-01-31 23:37:00,
2013-01-31 18:39:00,40.5,27.7,30.03,WSW,255,1.0,5.0,60,0.00,,,0.01,Wunderground v.1.15,2013-01-31 23:39:00,
2013-01-31 18:41:00,40.4,27.2,30.03,WSW,255,0.0,2.0,59,0.00,,,0.01,Wunderground v.1.15,2013-01-31 23:41:00,
2013-01-31 18:42:00,40.4,27.2,30.03,WSW,255,0.0,2.0,59,0.00,,,0.01,Wunderground v.1.15,2013-01-31 23:42:00,
2013-01-31 18:43:00,40.4,27.6,30.03,WSW,255,0.0,2.0,60,0.00,,,0.01,Wunderground v.1.15,2013-01-31 23:43:00,
2013-01-31 18:45:00,40.3,27.5,30.03,WSW,254,0.0,2.0,60,0.00,,,0.01,Wunderground v.1.15,2013-01-31 23:45:00,
2013-01-31 18:46:00,40.2,27.0,30.03,WSW,254,0.0,2.0,59,0.00,,,0.01,Wunderground v.1.15,2013-01-31 23:46:00,
2013-01-31 18:47:00,40.1,26.5,30.03,WSW,254,0.0,2.0,58,0.00,,,0.01,Wunderground v.1.15,2013-01-31 23:47:00,
2013-01-31 18:48:00,40.1,26.5,30.03,WSW,254,0.0,2.0,58,0.00,,,0.01,Wunderground v.1.15,2013-01-31 23:48:00,
2013-01-31 18:50:00,40.0,26.4,30.03,WSW,254,0.0,0.0,58,0.00,,,0.01,Wunderground v.1.15,2013-01-31 23:50:00,
2013-01-31 18:51:00,39.8,26.6,30.03,WSW,255,1.0,1.0,59,0.00,,,0.01,Wunderground v.1.15,2013-01-31 23:51:00,
2013-01-31 18:52:00,39.7,26.5,30.03,WSW,255,1.0,2.0,59,0.00,,,0.01,Wunderground v.1.15,2013-01-31 23:52:00,
2013-01-31 18:53:00,39.7,26.5,30.03,WSW,254,1.0,2.0,59,0.00,,,0.01,Wunderground v.1.15,2013-01-31 23:53:00,
2013-01-31 18:55:00,39.5,26.3,30.04,WSW,254,0.0,2.0,59,0.00,,,0.01,Wunderground v.1.15,2013-01-31 23:55:00,
2013-01-31 18:56:00,39.4,26.2,30.03,WSW,255,0.0,2.0,59,0.00,,,0.01,Wunderground v.1.15,2013-01-31 23:56:00,
2013-01-31 18:58:00,39.3,26.2,30.03,WSW,255,0.0,3.0,59,0.00,,,0.01,Wunderground v.1.15,2013-01-31 23:58:00,
2013-01-31 18:59:00,39.2,26.1,30.04,WSW,255,0.0,3.0,59,0.00,,,0.01,Wunderground v.1.15,2013-01-31 23:59:00,
2013-01-31 19:00:00,39.2,26.1,30.04,WSW,254,0.0,1.0,59,0.00,,,0.01,Wunderground v.1.15,2013-02-01 00:00:00,
2013-01-31 19:02:00,39.1,26.4,30.04,WSW,255,0.0,1.0,60,0.00,,,0.01,Wunderground v.1.15,2013-02-01 00:02:00,
2013-01-31 19:03:00,39.1,26.4,30.04,WSW,255,0.0,1.0,60,0.00,,,0.01,Wunderground v.1.15,2013-02-01 00:03:00,
2013-01-31 19:04:00,39.0,26.3,30.04,WSW,255,0.0,1.0,60,0.00,,,0.01,Wunderground v.1.15,2013-02-01 00:04:00,
2013-01-31 19:06:00,39.0,26.3,30.04,WSW,254,0.0,1.0,60,0.00,,,0.01,Wunderground v.1.15,2013-02-01 00:06:00,
2013-01-31 19:07:00,38.9,26.2,30.04,WSW,255,0.0,1.0,60,0.00,,,0.01,Wunderground v.1.15,2013-02-01 00:07:00,
2013-01-31 19:08:00,38.9,26.2,30.04,WSW,255,0.0,1.0,60,0.00,,,0.01,Wunderground v.1.15,2013-02-01 00:08:00,
2013-01-31 19:09:00,38.8,26.1,30.04,WSW,255,0.0,1.0,60,0.00,,,0.01,Wunderground v.1.15,2013-02-01 00:09:00,
2013-01-31 19:11:00,38.7,26.0,30.04,WSW,255,0.0,1.0,60,0.00,,,0.01,Wunderground v.1.15,2013-02-01 00:11:00,
2013-01-31 19:12:00,38.6,25.9,30.04,WSW,255,1.0,1.0,60,0.00,,,0.01,Wunderground v.1.15,2013-02-01 00:12:00,
2013-01-31 19:13:00,38.6,25.9,30.04,WSW,255,0.0,1.0,60,0.00,,,0.01,Wunderground v.1.15,2013-02-01 00:13:00,
2013-01-31 19:14:00,38.5,25.8,30.04,WSW,255,0.0,1.0,60,0.00,,,0.01,Wunderground v.1.15,2013-02-01 00:14:00,
2013-01-31 19:16:00,38.4,25.7,30.05,WSW,255,0.0,1.0,60,0.00,,,0.01,Wunderground v.1.15,2013-02-01 00:16:00,
2013-01-31 19:17:00,38.4,25.7,30.05,WSW,255,0.0,1.0,60,0.00,,,0.01,Wunderground v.1.15,2013-02-01 00:17:00,
2013-01-31 19:18:00,38.3,26.0,30.05,WSW,255,0.0,1.0,61,0.00,,,0.01,Wunderground v.1.15,2013-02-01 00:18:00,
2013-01-31 19:20:00,38.3,26.0,30.05,WSW,255,0.0,0.0,61,0.00,,,0.01,Wunderground v.1.15,2013-02-01 00:20:00,
2013-01-31 19:22:00,38.2,25.9,30.05,WSW,254,0.0,1.0,61,0.00,,,0.01,Wunderground v.1.15,2013-02-01 00:22:00,
2013-01-31 19:25:00,38.1,26.2,30.05,WSW,254,1.0,1.0,62,0.00,,,0.01,Wunderground v.1.15,2013-02-01 00:25:00,
2013-01-31 19:27:00,38.0,26.1,30.05,WSW,255,0.0,1.0,62,0.00,,,0.01,Wunderground v.1.15,2013-02-01 00:27:00,
2013-01-31 19:28:00,38.0,26.1,30.05,WSW,255,0.0,1.0,62,0.00,,,0.01,Wunderground v.1.15,2013-02-01 00:28:00,
2013-01-31 19:30:00,37.9,26.4,30.05,WSW,255,0.0,2.0,63,0.00,,,0.01,Wunderground v.1.15,2013-02-01 00:30:00,
2013-01-31 19:31:00,37.9,26.4,30.05,WSW,255,2.0,2.0,63,0.00,,,0.01,Wunderground v.1.15,2013-02-01 00:31:00,
2013-01-31 19:32:00,37.8,26.3,30.05,WSW,255,3.0,3.0,63,0.00,,,0.01,Wunderground v.1.15,2013-02-01 00:32:00,
2013-01-31 19:33:00,37.8,26.7,30.05,WSW,255,1.0,3.0,64,0.00,,,0.01,Wunderground v.1.15,2013-02-01 00:33:00,
2013-01-31 19:35:00,37.7,26.6,30.05,WSW,254,1.0,4.0,64,0.00,,,0.01,Wunderground v.1.15,2013-02-01 00:35:00,
2013-01-31 19:36:00,37.7,26.6,30.05,WSW,255,1.0,4.0,64,0.00,,,0.01,Wunderground v.1.15,2013-02-01 00:36:00,
2013-01-31 19:37:00,37.7,26.6,30.05,WSW,255,2.0,4.0,64,0.00,,,0.01,Wunderground v.1.15,2013-02-01 00:37:00,
2013-01-31 19:38:00,37.7,26.6,30.05,WSW,255,2.0,4.0,64,0.00,,,0.01,Wunderground v.1.15,2013-02-01 00:38:00,
2013-01-31 19:41:00,37.7,26.6,30.06,WSW,255,1.0,3.0,64,0.00,,,0.01,Wunderground v.1.15,2013-02-01 00:41:00,
2013-01-31 19:42:00,37.7,26.6,30.05,WSW,255,0.0,3.0,64,0.00,,,0.01,Wunderground v.1.15,2013-02-01 00:42:00,
2013-01-31 19:43:00,37.7,27.0,30.05,WSW,255,1.0,3.0,65,0.00,,,0.01,Wunderground v.1.15,2013-02-01 00:43:00,
2013-01-31 19:46:00,37.7,26.6,30.06,WSW,254,2.0,4.0,64,0.00,,,0.01,Wunderground v.1.15,2013-02-01 00:46:00,
2013-01-31 19:47:00,37.7,27.0,30.06,WSW,254,1.0,4.0,65,0.00,,,0.01,Wunderground v.1.15,2013-02-01 00:47:00,
2013-01-31 19:48:00,37.6,26.9,30.06,WSW,254,3.0,4.0,65,0.00,,,0.01,Wunderground v.1.15,2013-02-01 00:48:00,
2013-01-31 19:51:00,37.6,26.9,30.06,WSW,254,2.0,2.0,65,0.00,,,0.01,Wunderground v.1.15,2013-02-01 00:51:00,
2013-01-31 19:52:00,37.6,26.9,30.06,WSW,254,1.0,2.0,65,0.00,,,0.01,Wunderground v.1.15,2013-02-01 00:52:00,
2013-01-31 19:53:00,37.5,27.5,30.06,WSW,254,0.0,2.0,67,0.00,,,0.01,Wunderground v.1.15,2013-02-01 00:53:00,
2013-01-31 19:57:00,37.3,27.3,30.06,WSW,254,1.0,2.0,67,0.00,,,0.01,Wunderground v.1.15,2013-02-01 00:57:00,
2013-01-31 19:58:00,37.3,27.7,30.06,WSW,254,0.0,2.0,68,0.00,,,0.01,Wunderground v.1.15,2013-02-01 00:58:00,
2013-01-31 20:02:00,36.9,27.3,30.07,WSW,254,2.0,3.0,68,0.00,,,0.01,Wunderground v.1.15,2013-02-01 01:02:00,
2013-01-31 20:03:00,36.9,27.3,30.07,WSW,254,3.0,3.0,68,0.00,,,0.01,Wunderground v.1.15,2013-02-01 01:03:00,
2013-01-31 20:08:00,36.9,27.0,30.07,WSW,253,2.0,5.0,67,0.00,,,0.01,Wunderground v.1.15,2013-02-01 01:08:00,
2013-01-31 20:13:00,37.5,26.4,30.06,WSW,241,2.0,4.0,64,0.00,,,0.01,Wunderground v.1.15,2013-02-01 01:13:00,
2013-01-31 20:14:00,37.7,27.0,30.06,WSW,241,3.0,4.0,65,0.00,,,0.01,Wunderground v.1.15,2013-02-01 01:14:00,
2013-01-31 20:18:00,38.1,27.0,30.06,SW,236,1.0,6.0,64,0.00,,,0.01,Wunderground v.1.15,2013-02-01 01:18:00,
2013-01-31 20:19:00,38.2,27.8,30.06,SW,236,1.0,6.0,66,0.00,,,0.01,Wunderground v.1.15,2013-02-01 01:19:00,
2013-01-31 20:20:00,38.2,27.8,30.06,SW,236,3.0,5.0,66,0.00,,,0.01,Wunderground v.1.15,2013-02-01 01:20:00,
2013-01-31 20:23:00,38.1,27.7,30.06,WSW,238,3.0,5.0,66,0.00,,,0.01,Wunderground v.1.15,2013-02-01 01:23:00,
2013-01-31 20:25:00,38.3,27.2,30.06,WSW,238,2.0,5.0,64,0.00,,,0.01,Wunderground v.1.15,2013-02-01 01:25:00,
2013-01-31 20:26:00,38.4,27.7,30.06,WSW,238,5.0,5.0,65,0.00,,,0.01,Wunderground v.1.15,2013-02-01 01:26:00,
2013-01-31 20:28:00,38.6,27.1,30.07,SW,227,4.0,6.0,63,0.00,,,0.01,Wunderground v.1.15,2013-02-01 01:28:00,
2013-01-31 20:31:00,38.9,27.4,30.07,SW,233,2.0,3.0,63,0.00,,,0.01,Wunderground v.1.15,2013-02-01 01:31:00,
2013-01-31 20:33:00,39.0,27.5,30.07,SW,234,3.0,6.0,63,0.00,,,0.01,Wunderground v.1.15,2013-02-01 01:33:00,
2013-01-31 20:36:00,39.1,27.6,30.07,SW,232,1.0,6.0,63,0.00,,,0.01,Wunderground v.1.15,2013-02-01 01:36:00,
2013-01-31 20:38:00,39.1,27.9,30.07,SW,234,1.0,6.0,64,0.00,,,0.01,Wunderground v.1.15,2013-02-01 01:38:00,
2013-01-31 20:39:00,39.1,28.3,30.07,SW,234,0.0,6.0,65,0.00,,,0.01,Wunderground v.1.15,2013-02-01 01:39:00,
2013-01-31 20:41:00,38.9,28.1,30.07,SW,230,4.0,4.0,65,0.00,,,0.01,Wunderground v.1.15,2013-02-01 01:41:00,
2013-01-31 20:42:00,38.9,27.8,30.07,SW,226,2.0,5.0,64,0.00,,,0.01,Wunderground v.1.15,2013-02-01 01:42:00,
2013-01-31 20:43:00,38.8,27.7,30.07,SW,226,3.0,5.0,64,0.00,,,0.01,Wunderground v.1.15,2013-02-01 01:43:00,
2013-01-31 20:44:00,38.8,27.7,30.07,SW,226,1.0,5.0,64,0.00,,,0.01,Wunderground v.1.15,2013-02-01 01:44:00,
2013-01-31 20:47:00,38.8,28.0,30.07,SW,229,1.0,5.0,65,0.00,,,0.01,Wunderground v.1.15,2013-02-01 01:47:00,
2013-01-31 20:48:00,38.7,27.9,30.07,SW,229,3.0,5.0,65,0.00,,,0.01,Wunderground v.1.15,2013-02-01 01:48:00,
2013-01-31 20:49:00,38.7,27.9,30.07,SW,229,1.0,5.0,65,0.00,,,0.01,Wunderground v.1.15,2013-02-01 01:49:00,
2013-01-31 20:52:00,38.5,28.5,30.07,SW,229,1.0,3.0,67,0.00,,,0.01,Wunderground v.1.15,2013-02-01 01:52:00,
2013-01-31 20:53:00,38.4,28.0,30.07,SW,229,3.0,3.0,66,0.00,,,0.01,Wunderground v.1.15,2013-02-01 01:53:00,
2013-01-31 20:55:00,38.4,28.0,30.07,SW,229,1.0,3.0,66,0.00,,,0.01,Wunderground v.1.15,2013-02-01 01:55:00,
2013-01-31 20:57:00,38.3,27.9,30.06,SW,229,2.0,3.0,66,0.00,,,0.01,Wunderground v.1.15,2013-02-01 01:57:00,
2013-01-31 20:58:00,38.2,28.2,30.06,SW,229,3.0,3.0,67,0.00,,,0.01,Wunderground v.1.15,2013-02-01 01:58:00,
2013-01-31 20:59:00,38.2,28.2,30.06,SW,229,1.0,3.0,67,0.00,,,0.01,Wunderground v.1.15,2013-02-01 01:59:00,
2013-01-31 21:00:00,38.2,28.2,30.06,SW,229,2.0,2.0,67,0.00,,,0.01,Wunderground v.1.15,2013-02-01 02:00:00,
2013-01-31 21:03:00,38.0,27.6,30.06,SW,229,1.0,3.0,66,0.00,,,0.01,Wunderground v.1.15,2013-02-01 02:03:00,
2013-01-31 21:04:00,38.0,27.6,30.06,SW,229,3.0,3.0,66,0.00,,,0.01,Wunderground v.1.15,2013-02-01 02:04:00,
2013-01-31 21:06:00,38.0,28.0,30.06,SW,232,6.0,8.0,67,0.00,,,0.01,Wunderground v.1.15,2013-02-01 02:06:00,
2013-01-31 21:08:00,38.1,27.7,30.05,SW,232,4.0,8.0,66,0.00,,,0.01,Wunderground v.1.15,2013-02-01 02:08:00,
2013-01-31 21:09:00,38.1,27.4,30.05,WSW,238,4.0,8.0,65,0.00,,,0.01,Wunderground v.1.15,2013-02-01 02:09:00,
2013-01-31 21:11:00,38.3,27.2,30.06,WSW,240,4.0,6.0,64,0.00,,,0.01,Wunderground v.1.15,2013-02-01 02:11:00,
2013-01-31 21:13:00,38.7,27.6,30.05,SW,236,3.0,6.0,64,0.00,,,0.01,Wunderground v.1.15,2013-02-01 02:13:00,
2013-01-31 21:14:00,38.8,27.7,30.05,SW,235,2.0,6.0,64,0.00,,,0.01,Wunderground v.1.15,2013-02-01 02:14:00,
2013-01-31 21:16:00,39.0,27.8,30.05,SW,235,3.0,6.0,64,0.00,,,0.01,Wunderground v.1.15,2013-02-01 02:16:00,
2013-01-31 21:20:00,39.3,27.7,30.05,SW,226,4.0,4.0,63,0.00,,,0.01,Wunderground v.1.15,2013-02-01 02:20:00,
2013-01-31 21:22:00,39.4,29.0,30.05,SW,229,3.0,4.0,66,0.00,,,0.01,Wunderground v.1.15,2013-02-01 02:22:00,
2013-01-31 21:25:00,39.7,27.7,30.05,SW,234,3.0,8.0,62,0.00,,,0.01,Wunderground v.1.15,2013-02-01 02:25:00,
2013-01-31 21:27:00,40.0,27.6,30.05,SW,222,2.0,8.0,61,0.00,,,0.01,Wunderground v.1.15,2013-02-01 02:27:00,
2013-01-31 21:30:00,40.1,27.7,30.05,SSW,209,3.0,4.0,61,0.00,,,0.01,Wunderground v.1.15,2013-02-01 02:30:00,
2013-01-31 21:32:00,40.2,27.8,30.05,SW,229,2.0,6.0,61,0.00,,,0.01,Wunderground v.1.15,2013-02-01 02:32:00,
2013-01-31 21:35:00,40.5,27.3,30.05,WSW,248,5.0,11.0,59,0.00,,,0.01,Wunderground v.1.15,2013-02-01 02:35:00,
2013-01-31 21:36:00,40.6,27.8,30.05,WSW,248,6.0,11.0,60,0.00,,,0.01,Wunderground v.1.15,2013-02-01 02:36:00,
2013-01-31 21:37:00,40.8,27.6,30.05,WSW,254,3.0,11.0,59,0.00,,,0.01,Wunderground v.1.15,2013-02-01 02:37:00,
2013-01-31 21:40:00,41.1,27.4,30.04,SW,219,6.0,6.0,58,0.00,,,0.01,Wunderground v.1.15,2013-02-01 02:40:00,
2013-01-31 21:41:00,41.1,27.4,30.04,SW,224,7.0,11.0,58,0.00,,,0.01,Wunderground v.1.15,2013-02-01 02:41:00,
2013-01-31 21:43:00,41.4,28.1,30.05,SW,217,6.0,14.0,59,0.00,,,0.01,Wunderground v.1.15,2013-02-01 02:43:00,
2013-01-31 21:45:00,41.4,28.1,30.04,WSW,240,5.0,14.0,59,0.00,,,0.01,Wunderground v.1.15,2013-02-01 02:45:00,
2013-01-31 21:46:00,41.4,27.7,30.04,SW,221,5.0,14.0,58,0.00,,,0.01,Wunderground v.1.15,2013-02-01 02:46:00,
2013-01-31 21:48:00,41.5,27.4,30.05,SW,219,6.0,14.0,57,0.00,,,0.01,Wunderground v.1.15,2013-02-01 02:48:00,
2013-01-31 21:50:00,41.7,27.6,30.05,SSW,210,3.0,6.0,57,0.00,,,0.01,Wunderground v.1.15,2013-02-01 02:50:00,
2013-01-31 21:51:00,41.6,27.9,30.05,SSW,210,4.0,6.0,58,0.00,,,0.01,Wunderground v.1.15,2013-02-01 02:51:00,
2013-01-31 21:53:00,41.5,27.8,30.05,WSW,250,4.0,7.0,58,0.00,,,0.01,Wunderground v.1.15,2013-02-01 02:53:00,
2013-01-31 21:56:00,41.5,27.8,30.05,SSW,200,6.0,8.0,58,0.00,,,0.01,Wunderground v.1.15,2013-02-01 02:56:00,
2013-01-31 21:57:00,41.4,27.7,30.05,WSW,237,7.0,8.0,58,0.00,,,0.01,Wunderground v.1.15,2013-02-01 02:57:00,
2013-01-31 21:58:00,41.4,27.3,30.05,SW,222,10.0,12.0,57,0.00,,,0.01,Wunderground v.1.15,2013-02-01 02:58:00,
2013-01-31 22:01:00,41.6,27.9,30.05,SW,229,2.0,6.0,58,0.00,,,0.01,Wunderground v.1.15,2013-02-01 03:01:00,
2013-01-31 22:02:00,41.6,27.9,30.05,SW,222,4.0,9.0,58,0.00,,,0.01,Wunderground v.1.15,2013-02-01 03:02:00,
2013-01-31 22:03:00,41.5,27.8,30.05,SW,216,5.0,10.0,58,0.00,,,0.01,Wunderground v.1.15,2013-02-01 03:03:00,
2013-01-31 22:06:00,41.4,27.7,30.04,SW,224,10.0,16.0,58,0.00,,,0.01,Wunderground v.1.15,2013-02-01 03:06:00,
2013-01-31 22:07:00,41.5,27.0,30.04,SW,228,9.0,16.0,56,0.00,,,0.01,Wunderground v.1.15,2013-02-01 03:07:00,
2013-01-31 22:08:00,41.7,28.0,30.04,WSW,248,7.0,16.0,58,0.00,,,0.01,Wunderground v.1.15,2013-02-01 03:08:00,
2013-01-31 22:12:00,42.1,27.5,30.04,WSW,242,5.0,12.0,56,0.00,,,0.01,Wunderground v.1.15,2013-02-01 03:12:00,
2013-01-31 22:13:00,42.1,27.5,30.05,SW,232,4.0,12.0,56,0.00,,,0.01,Wunderground v.1.15,2013-02-01 03:13:00,
2013-01-31 22:17:00,42.1,27.5,30.05,SW,226,6.0,12.0,56,0.00,,,0.01,Wunderground v.1.15,2013-02-01 03:17:00,
2013-01-31 22:18:00,42.1,28.4,30.05,SW,229,4.0,12.0,58,0.00,,,0.01,Wunderground v.1.15,2013-02-01 03:18:00,
2013-01-31 22:19:00,42.1,27.5,30.05,SW,231,3.0,12.0,56,0.00,,,0.01,Wunderground v.1.15,2013-02-01 03:19:00,
2013-01-31 22:22:00,42.4,27.8,30.05,SW,224,7.0,15.0,56,0.00,,,0.01,Wunderground v.1.15,2013-02-01 03:22:00,
2013-01-31 22:23:00,42.4,27.8,30.05,SW,233,6.0,15.0,56,0.00,,,0.01,Wunderground v.1.15,2013-02-01 03:23:00,
2013-01-31 22:24:00,42.4,27.8,30.05,SSW,211,9.0,15.0,56,0.00,,,0.01,Wunderground v.1.15,2013-02-01 03:24:00,
2013-01-31 22:27:00,42.5,27.5,30.05,SW,226,5.0,16.0,55,0.00,,,0.01,Wunderground v.1.15,2013-02-01 03:27:00,
2013-01-31 22:28:00,42.5,28.3,30.05,SW,225,5.0,16.0,57,0.00,,,0.01,Wunderground v.1.15,2013-02-01 03:28:00,
2013-01-31 22:29:00,42.4,27.8,30.05,WSW,246,5.0,16.0,56,0.00,,,0.01,Wunderground v.1.15,2013-02-01 03:29:00,
2013-01-31 22:32:00,42.5,27.5,30.05,SW,230,6.0,17.0,55,0.00,,,0.01,Wunderground v.1.15,2013-02-01 03:32:00,
2013-01-31 22:33:00,42.5,27.5,30.05,SW,217,7.0,17.0,55,0.00,,,0.01,Wunderground v.1.15,2013-02-01 03:33:00,
2013-01-31 22:34:00,42.5,27.5,30.05,SW,225,5.0,17.0,55,0.00,,,0.01,Wunderground v.1.15,2013-02-01 03:34:00,
2013-01-31 22:35:00,42.4,27.8,30.05,SW,224,6.0,17.0,56,0.00,,,0.01,Wunderground v.1.15,2013-02-01 03:35:00,
2013-01-31 22:37:00,42.3,27.7,30.05,SSW,213,4.0,17.0,56,0.00,,,0.01,Wunderground v.1.15,2013-02-01 03:37:00,
2013-01-31 22:38:00,42.3,27.7,30.05,SW,228,11.0,17.0,56,0.00,,,0.01,Wunderground v.1.15,2013-02-01 03:38:00,
2013-01-31 22:39:00,42.3,27.3,30.05,SSW,211,10.0,17.0,55,0.00,,,0.01,Wunderground v.1.15,2013-02-01 03:39:00,
2013-01-31 22:40:00,42.3,28.1,30.05,SW,225,4.0,7.0,57,0.00,,,0.01,Wunderground v.1.15,2013-02-01 03:40:00,
2013-01-31 22:42:00,42.4,27.4,30.05,SSW,213,6.0,13.0,55,0.00,,,0.01,Wunderground v.1.15,2013-02-01 03:42:00,
2013-01-31 22:44:00,42.4,27.8,30.05,SW,223,6.0,13.0,56,0.00,,,0.01,Wunderground v.1.15,2013-02-01 03:44:00,
2013-01-31 22:45:00,42.4,27.4,30.04,SW,217,9.0,13.0,55,0.00,,,0.01,Wunderground v.1.15,2013-02-01 03:45:00,
2013-01-31 22:48:00,42.5,27.5,30.04,SW,227,9.0,14.0,55,0.00,,,0.01,Wunderground v.1.15,2013-02-01 03:48:00,
2013-01-31 22:49:00,42.5,27.5,30.04,SW,226,5.0,14.0,55,0.00,,,0.01,Wunderground v.1.15,2013-02-01 03:49:00,
2013-01-31 22:50:00,42.5,27.5,30.04,WSW,243,6.0,19.0,55,0.00,,,0.01,Wunderground v.1.15,2013-02-01 03:50:00,
2013-01-31 22:53:00,42.7,27.2,30.04,SW,224,7.0,20.0,54,0.00,,,0.01,Wunderground v.1.15,2013-02-01 03:53:00,
2013-01-31 22:54:00,42.8,27.3,30.04,WSW,243,7.0,20.0,54,0.00,,,0.01,Wunderground v.1.15,2013-02-01 03:54:00,
2013-01-31 22:56:00,42.8,27.3,30.04,SW,217,4.0,20.0,54,0.00,,,0.01,Wunderground v.1.15,2013-02-01 03:56:00,
2013-01-31 22:58:00,42.8,27.3,30.04,SW,225,11.0,20.0,54,0.00,,,0.01,Wunderground v.1.15,2013-02-01 03:58:00,
2013-01-31 22:59:00,42.8,27.3,30.04,West,267,13.0,20.0,54,0.00,,,0.01,Wunderground v.1.15,2013-02-01 03:59:00,
2013-01-31 23:01:00,42.8,27.7,30.03,SSW,202,7.0,8.0,55,0.00,,,0.01,Wunderground v.1.15,2013-02-01 04:01:00,
2013-01-31 23:03:00,42.8,27.3,30.03,SSW,211,12.0,14.0,54,0.00,,,0.01,Wunderground v.1.15,2013-02-01 04:03:00,
2013-01-31 23:04:00,42.8,27.3,30.03,SW,219,10.0,17.0,54,0.00,,,0.01,Wunderground v.1.15,2013-02-01 04:04:00,
2013-01-31 23:06:00,42.9,27.4,30.03,SSW,209,4.0,17.0,54,0.00,,,0.01,Wunderground v.1.15,2013-02-01 04:06:00,
2013-01-31 23:09:00,42.9,27.4,30.03,SW,229,11.0,17.0,54,0.00,,,0.01,Wunderground v.1.15,2013-02-01 04:09:00,
2013-01-31 23:11:00,42.9,27.4,30.03,SW,221,9.0,12.0,54,0.00,,,0.01,Wunderground v.1.15,2013-02-01 04:11:00,
2013-01-31 23:14:00,43.0,27.5,30.03,WSW,258,4.0,12.0,54,0.00,,,0.01,Wunderground v.1.15,2013-02-01 04:14:00,
2013-01-31 23:16:00,43.1,27.6,30.03,WSW,238,2.0,23.0,54,0.00,,,0.01,Wunderground v.1.15,2013-02-01 04:16:00,
2013-01-31 23:20:00,43.1,27.6,30.03,SW,214,5.0,7.0,54,0.00,,,0.01,Wunderground v.1.15,2013-02-01 04:20:00,
2013-01-31 23:21:00,43.0,27.9,30.02,SW,234,12.0,12.0,55,0.00,,,0.01,Wunderground v.1.15,2013-02-01 04:21:00,
2013-01-31 23:25:00,42.9,27.8,30.03,SW,229,5.0,12.0,55,0.00,,,0.01,Wunderground v.1.15,2013-02-01 04:25:00,
2013-01-31 23:26:00,42.8,27.7,30.03,SW,218,9.0,12.0,55,0.00,,,0.01,Wunderground v.1.15,2013-02-01 04:26:00,
2013-01-31 23:30:00,42.9,27.8,30.03,SW,225,18.0,18.0,55,0.00,,,0.01,Wunderground v.1.15,2013-02-01 04:30:00,
2013-01-31 23:31:00,43.1,27.6,30.03,West,261,11.0,19.0,54,0.00,,,0.01,Wunderground v.1.15,2013-02-01 04:31:00,
2013-01-31 23:35:00,43.2,28.1,30.04,SSW,206,10.0,19.0,55,0.00,,,0.01,Wunderground v.1.15,2013-02-01 04:35:00,
2013-01-31 23:36:00,43.1,28.0,30.04,WSW,242,6.0,19.0,55,0.00,,,0.01,Wunderground v.1.15,2013-02-01 04:36:00,
2013-01-31 23:37:00,43.1,28.0,30.04,WSW,240,8.0,21.0,55,0.00,,,0.01,Wunderground v.1.15,2013-02-01 04:37:00,
2013-01-31 23:40:00,43.3,27.8,30.03,WSW,248,5.0,8.0,54,0.00,,,0.01,Wunderground v.1.15,2013-02-01 04:40:00,
2013-01-31 23:41:00,43.2,28.1,30.03,SW,234,4.0,8.0,55,0.00,,,0.01,Wunderground v.1.15,2013-02-01 04:41:00,
2013-01-31 23:42:00,43.2,28.1,30.04,SW,214,10.0,10.0,55,0.00,,,0.01,Wunderground v.1.15,2013-02-01 04:42:00,
2013-01-31 23:45:00,43.2,28.1,30.04,SW,232,8.0,13.0,55,0.00,,,0.01,Wunderground v.1.15,2013-02-01 04:45:00,
2013-01-31 23:46:00,43.2,27.7,30.04,WSW,256,9.0,13.0,54,0.00,,,0.01,Wunderground v.1.15,2013-02-01 04:46:00,
2013-01-31 23:47:00,43.2,27.7,30.04,WSW,245,7.0,14.0,54,0.00,,,0.01,Wunderground v.1.15,2013-02-01 04:47:00,
2013-01-31 23:50:00,43.2,28.1,30.04,WSW,249,5.0,10.0,55,0.00,,,0.01,Wunderground v.1.15,2013-02-01 04:50:00,
2013-01-31 23:51:00,43.2,28.1,30.04,West,261,4.0,10.0,55,0.00,,,0.01,Wunderground v.1.15,2013-02-01 04:51:00,
2013-01-31 23:52:00,43.2,28.1,30.04,SW,230,6.0,12.0,55,0.00,,,0.01,Wunderground v.1.15,2013-02-01 04:52:00,
2013-01-31 23:56:00,43.3,28.2,30.04,SW,236,6.0,15.0,55,0.00,,,0.01,Wunderground v.1.15,2013-02-01 04:56:00,
2013-01-31 23:57:00,43.3,28.2,30.04,West,281,5.0,15.0,55,0.00,,,0.01,Wunderground v.1.15,2013-02-01 04:57:00,